GEFSSGP_500_meanwind_000.txt.gz
Wind_Speed
8 15 18 16 10 6 10 10 3 6 10 14 18 26 33 36 28 23 24 25 24 21 17 15 14 14 13 14 15 15 15 16 18 18 19 19 19 18 18 18 19 20 20 20 20 21 22 22 23
12 19 17 15 7 6 8 8 2 11 15 16 18 23 28 27 20 19 19 20 18 15 14 12 12 12 12 14 16 16 17 18 19 20 20 20 21 20 19 19 20 20 21 20 21 22 24 25 26
18 21 18 13 7 8 10 8 7 12 17 20 18 15 14 11 12 17 16 15 12 10 9 9 11 11 11 13 15 16 16 16 17 20 22 22 21 20 19 19 20 22 23 23 23 23 25 27 28
20 22 16 10 5 6 9 13 15 22 21 22 20 16 10 12 13 15 13 11 11 11 11 10 10 11 11 13 16 16 13 14 15 16 19 20 21 21 22 24 24 25 25 26 26 27 29 31 32
19 20 15 8 3 7 15 18 20 23 25 21 16 14 16 16 14 14 13 14 15 16 16 14 14 13 12 13 15 16 15 13 13 14 15 14 16 20 24 27 30 30 29 27 28 30 33 38 37
17 15 12 6 5 12 17 19 19 20 15 12 17 20 21 18 17 15 16 19 18 15 14 14 16 14 14 15 14 12 12 12 12 14 15 16 18 22 24 25 29 29 28 29 30 29 28 31 32
16 11 8 5 10 14 17 18 22 24 20 17 19 20 17 19 13 13 16 18 16 16 14 13 16 17 13 12 14 14 14 14 15 16 16 16 17 19 22 24 25 26 26 26 28 30 31 30 28
11 8 7 9 10 10 16 21 23 24 23 21 21 18 16 21 20 18 23 16 19 20 19 19 17 9 9 13 15 19 20 20 19 19 20 20 20 20 22 24 24 26 26 26 29 31 31 31 30
12 14 10 8 6 4 11 17 21 26 26 23 22 22 22 23 22 24 22 21 24 17 16 19 13 9 12 12 16 19 21 22 22 22 22 23 24 24 24 23 24 25 26 28 30 31 30 31 32
13 13 9 6 4 6 10 15 20 22 25 22 22 22 23 25 25 23 21 25 21 18 16 17 13 14 13 13 17 20 22 24 24 24 24 25 27 27 28 26 26 26 28 29 31 32 33 34 34
12 13 10 10 9 11 12 18 21 21 23 21 22 22 24 26 24 24 25 23 15 17 18 16 16 19 16 17 20 21 23 24 25 24 25 26 27 27 29 28 28 27 27 28 31 34 36 36 36
15 15 16 14 14 19 17 21 25 25 23 24 26 24 25 24 23 23 24 21 22 27 24 12 15 22 25 23 20 20 23 24 24 23 25 26 25 24 27 30 27 25 25 27 30 33 36 38 39
19 19 19 15 12 18 23 26 28 26 24 27 27 28 25 25 25 24 26 20 25 31 11 4 12 22 25 26 23 24 25 25 24 24 25 27 26 27 31 30 28 28 30 32 33 34 38 40 41
22 21 20 17 13 11 19 26 29 30 27 26 27 27 24 25 28 29 31 33 35 35 32 29 25 26 23 23 25 24 21 22 25 26 25 27 29 31 32 29 31 34 36 39 38 40 41 42 45
24 22 19 14 11 9 12 14 19 24 24 24 26 26 24 24 28 32 37 41 41 42 36 33 34 28 26 29 25 23 28 21 27 29 29 30 31 32 34 35 39 41 41 39 43 47 49 50 50
25 23 17 11 10 9 13 8 14 21 19 21 24 25 27 28 31 35 43 47 42 43 42 38 35 32 32 34 25 27 24 28 35 34 34 34 35 36 36 36 39 40 41 42 44 48 50 51 55
25 21 14 9 7 7 11 7 12 21 19 21 25 28 32 34 34 37 44 46 41 41 41 40 38 36 31 30 27 26 32 32 35 36 37 38 40 40 40 44 45 45 44 43 45 50 43 46 51
23 19 15 16 11 10 14 18 21 24 22 26 29 31 34 33 33 38 42 42 38 37 39 40 39 37 35 32 29 32 35 35 34 35 38 39 39 41 43 44 45 47 49 50 52 52 55 58 59
25 23 20 19 13 11 12 20 24 26 28 30 30 32 30 24 26 33 36 38 36 37 40 40 38 38 37 37 35 33 35 36 37 37 37 37 39 41 43 46 50 50 51 53 56 59 59 62 68
27 26 23 17 12 11 12 17 23 27 30 31 32 29 19 16 22 28 32 36 36 38 40 37 36 35 36 37 37 37 37 37 38 37 38 40 43 44 47 50 52 55 56 58 61 63 64 68 71
29 27 24 21 18 17 16 22 25 28 32 34 32 23 20 20 24 30 34 33 35 38 36 34 34 35 37 38 39 40 40 41 42 43 44 45 46 48 51 55 57 59 61 62 66 69 72 73 76
35 26 22 26 30 25 22 25 29 31 33 34 30 22 24 25 27 31 30 27 33 33 33 35 37 38 39 40 41 43 44 45 47 48 49 51 53 55 57 59 61 64 67 69 68 65 63 68 67
31 22 20 25 32 35 30 31 35 38 36 35 30 26 27 28 31 33 29 31 34 34 36 40 41 42 42 43 45 46 47 49 51 53 55 56 58 59 61 64 66 69 67 59 53 55 58 60 52
26 23 23 28 31 36 37 38 43 44 39 37 35 32 34 34 36 37 36 35 36 37 39 42 45 45 45 45 47 49 50 52 55 57 57 59 60 63 65 65 67 60 50 45 46 50 52 51 48
30 31 33 35 35 35 32 37 41 43 42 40 38 38 39 38 37 38 37 36 38 39 42 47 48 47 46 47 50 51 53 55 58 59 60 61 62 63 62 63 54 46 42 42 46 48 47 45 45
30 32 32 35 33 30 33 37 35 39 38 37 36 38 40 40 40 42 40 38 39 42 45 48 48 47 48 51 53 53 55 57 58 59 61 62 62 60 57 50 43 40 41 42 44 45 44 45 46
30 28 26 32 35 32 32 32 31 32 33 36 40 41 39 41 42 43 40 39 42 45 47 49 49 49 51 54 55 55 57 58 59 61 63 64 61 52 46 39 40 40 39 42 44 45 46 47 48
37 34 32 33 36 34 32 34 36 35 33 34 34 35 36 37 38 40 40 41 45 49 52 51 49 50 54 55 55 56 58 59 60 61 60 55 45 36 35 37 39 38 41 44 47 49 50 51 52
28 30 34 35 35 34 31 29 29 35 38 40 41 43 44 38 37 38 39 42 47 53 52 51 48 51 55 56 58 59 60 60 59 57 49 40 34 37 37 37 37 40 44 47 49 51 51 52 53
27 25 29 35 33 34 35 33 29 32 37 40 44 45 43 39 38 38 38 42 48 48 44 46 49 53 55 59 61 59 60 60 59 54 42 37 38 38 37 37 40 43 47 49 51 51 50 50 50

GEFSSGP_500_meanwind_006.txt.gz
Wind_Speed
9 11 11 10 10 13 13 10 6 4 6 9 13 15 16 16 15 15 16 16 15 14 13 12 10 9 10 10 10 11 12 13 14 14 15 15 15 15 14 16 17 17 18 18 19 20 20 20 21
12 12 11 10 8 10 11 9 6 5 6 9 11 13 13 12 12 14 15 15 13 12 11 9 7 7 7 7 8 10 11 13 14 15 16 16 17 17 18 18 18 19 19 19 20 20 21 23 23
14 13 12 11 9 7 5 5 6 6 4 7 9 11 12 13 14 14 13 12 11 10 8 6 5 6 6 6 7 8 9 11 13 15 16 16 15 16 18 19 19 18 19 20 20 21 23 24 25
15 14 12 11 10 8 5 3 1 3 4 6 7 10 12 15 16 16 14 12 11 10 9 7 5 4 3 2 4 6 8 10 12 13 13 13 13 13 14 15 16 17 19 21 23 25 26 27 26
16 14 13 13 11 6 3 4 6 8 9 10 9 11 13 14 16 17 16 14 13 12 11 10 10 9 7 6 6 6 9 10 10 9 9 10 11 12 12 13 15 17 19 21 24 27 27 28 29
15 13 13 11 9 5 2 3 5 8 10 10 10 12 14 15 17 18 17 16 17 16 13 13 15 15 13 11 8 7 7 8 8 8 9 9 11 12 13 13 14 15 17 19 22 25 27 28 29
15 12 11 9 9 6 3 2 4 8 9 11 11 14 15 16 17 20 20 19 17 15 14 15 15 14 10 8 8 8 8 10 11 11 13 14 14 15 15 15 16 17 18 19 21 24 26 28 29
14 13 12 11 11 9 6 4 5 7 9 10 13 14 16 18 20 20 20 18 17 15 13 12 12 12 9 9 11 12 13 15 17 18 19 19 18 18 18 18 19 20 20 20 21 23 24 27 28
11 12 11 11 10 8 8 6 7 10 10 11 13 15 18 19 20 20 20 19 20 21 17 11 9 10 10 12 13 14 15 17 20 22 23 22 22 22 21 21 22 23 22 22 22 23 25 27 29
10 11 10 10 11 11 11 10 10 12 14 12 14 17 19 20 18 17 17 20 22 25 23 15 9 9 11 13 14 14 15 16 19 21 22 23 23 23 22 22 23 24 24 24 24 24 26 28 30
12 12 11 12 13 14 15 15 14 14 16 16 17 19 20 21 20 15 14 17 21 23 23 19 13 11 12 14 15 15 15 16 18 18 20 21 22 22 22 22 23 24 25 25 25 26 26 28 30
16 15 14 14 15 18 21 20 17 16 17 19 21 21 22 24 24 18 16 16 17 21 21 15 12 11 12 15 16 17 19 20 20 20 20 21 22 22 24 25 26 26 27 28 29 29 29 31 33
21 18 15 16 18 20 23 23 21 19 21 22 23 24 24 24 24 21 20 19 19 20 19 15 14 14 15 16 18 19 20 22 22 23 23 24 24 25 27 28 29 30 30 31 32 33 34 36 37
24 20 16 18 22 24 27 27 26 26 25 25 25 26 25 22 21 22 22 21 21 20 19 18 19 21 21 18 17 18 19 20 21 22 23 25 26 27 27 27 29 31 32 33 34 35 37 37 38
26 22 19 20 25 27 27 26 25 28 30 30 29 29 26 19 19 23 24 23 23 22 20 20 23 25 22 18 16 16 17 18 20 21 23 25 26 26 26 27 29 30 31 34 36 38 39 39 40
28 25 21 22 25 27 27 23 23 24 27 29 29 27 21 15 19 23 25 24 23 21 20 23 26 26 22 18 17 16 16 18 20 22 23 24 25 27 29 31 31 32 33 35 38 39 41 42 44
31 29 25 23 26 27 29 27 27 26 26 26 23 19 15 14 19 24 26 24 21 19 21 23 25 23 20 19 19 18 19 19 21 22 25 27 28 30 32 34 35 36 38 39 41 43 44 45 47
34 33 30 26 29 31 32 31 30 29 28 28 24 18 14 15 19 23 24 21 19 20 22 23 23 22 22 22 23 23 23 23 24 26 28 29 31 33 35 37 39 40 42 44 45 47 48 49 51
37 37 35 29 31 35 36 34 33 32 31 29 25 19 17 17 20 22 22 21 21 22 24 25 25 28 28 27 27 28 27 26 26 28 30 32 34 36 39 41 43 45 46 47 49 51 53 54 56
40 41 38 31 34 39 39 38 36 33 32 28 23 20 17 19 22 24 24 25 25 26 28 30 32 33 33 31 31 33 33 31 30 31 34 36 38 40 43 45 47 48 49 50 52 54 56 58 59
42 40 36 32 36 41 42 42 39 37 34 29 23 19 17 20 24 27 27 28 29 29 32 35 36 37 37 37 36 37 38 37 36 38 40 41 43 45 48 49 50 51 51 52 55 57 59 59 58
40 36 35 34 37 42 45 46 43 40 35 28 22 20 21 24 27 29 30 31 32 33 36 38 39 40 41 42 42 41 42 42 41 41 44 46 49 52 53 53 53 52 52 54 56 57 56 53 49
36 34 37 37 40 44 46 48 46 42 36 27 23 24 27 30 31 31 32 34 35 37 39 41 41 42 44 44 42 42 43 42 42 43 46 50 54 57 56 55 54 54 55 57 57 54 49 45 42
35 35 38 40 42 45 45 48 49 44 37 32 30 30 32 33 32 32 34 36 38 39 41 42 43 45 46 46 44 43 42 42 43 46 50 55 59 60 58 57 57 58 59 57 54 48 43 41 41
36 36 37 40 42 45 41 46 47 43 38 35 34 36 37 38 39 38 38 38 39 39 41 43 45 47 49 49 47 45 44 44 45 48 54 58 61 61 59 59 60 61 58 53 47 42 41 43 43
33 35 36 39 41 42 41 44 40 38 36 35 37 40 41 42 42 40 38 37 38 39 41 44 46 50 52 52 52 49 45 44 46 50 57 61 61 59 58 60 62 59 52 46 44 44 44 45 45
30 34 35 38 40 43 42 40 38 34 33 33 34 35 36 36 35 34 33 34 36 39 42 46 50 54 56 56 58 53 46 45 48 52 58 61 60 57 58 60 58 52 47 45 46 46 46 47 48
31 33 37 39 40 43 42 40 36 32 30 29 29 30 32 33 33 35 37 37 39 43 47 52 56 59 59 59 57 49 43 46 49 54 57 57 56 57 58 56 51 47 45 45 46 47 48 51 53
27 33 37 39 41 43 44 41 34 32 30 30 29 28 28 31 35 37 38 39 42 46 49 53 57 58 57 51 44 41 43 48 51 54 54 55 56 57 56 51 47 45 44 45 47 50 53 56 58
29 31 34 39 40 41 45 42 37 35 33 33 32 31 31 33 36 37 40 43 45 48 48 48 48 47 45 42 41 44 47 49 51 53 54 55 56 54 50 47 46 46 46 49 51 54 57 60 62

GEFSSGP_500_meanwind_012.txt.gz
Wind_Speed
16 17 16 16 15 14 12 11 10 10 9 8 6 5 3 3 4 5 5 5 6 6 5 6 6 6 6 6 6 7 9 10 11 12 12 12 12 13 13 14 14 15 16 16 17 17 18 18 18
13 13 12 12 12 8 10 12 12 12 11 9 8 5 4 4 5 5 5 4 4 4 5 5 5 4 4 5 6 6 7 9 11 12 12 12 13 13 14 15 16 17 17 17 17 17 18 18 18
12 11 11 11 12 12 12 13 13 12 10 9 7 5 5 5 5 6 5 5 5 4 4 4 4 3 4 4 6 6 7 8 9 10 11 11 11 12 13 14 15 16 17 18 18 18 18 19 19
10 11 11 12 12 13 13 13 12 10 9 8 5 4 4 4 5 6 6 5 5 5 4 4 4 4 5 5 6 7 7 7 8 8 8 8 8 9 10 11 13 15 16 17 17 18 19 20 21
11 12 13 13 13 12 12 10 9 7 6 4 3 2 3 4 5 6 6 5 4 5 5 6 6 7 8 8 8 8 8 8 7 7 7 7 7 8 9 11 13 14 16 17 18 19 21 21 22
12 13 15 13 13 12 11 9 7 6 4 2 1 2 3 4 6 7 7 7 6 4 4 5 6 7 7 8 7 7 7 7 6 6 6 7 8 10 11 13 14 16 17 18 19 20 22 23 24
13 15 17 16 14 11 8 7 7 6 4 1 2 4 4 5 7 7 7 8 7 5 3 3 5 6 7 7 7 6 7 7 8 9 10 11 12 13 14 14 15 16 17 19 20 22 23 24 26
13 15 16 16 13 10 6 5 5 5 4 1 2 4 5 5 6 5 6 7 8 6 5 4 4 5 6 7 8 8 8 9 11 12 13 14 15 15 15 15 15 16 17 18 20 21 23 25 26
13 16 17 17 15 10 7 6 4 5 5 3 3 4 5 5 6 5 6 7 7 8 7 5 3 4 5 6 7 8 9 10 12 13 14 15 16 15 15 14 15 16 17 19 20 22 23 24 26
13 17 17 15 14 12 10 7 5 7 8 7 7 7 7 7 8 7 7 7 8 8 7 7 5 4 5 6 8 9 11 12 13 14 15 15 15 15 15 14 15 17 18 20 22 23 24 24 25
13 16 13 15 15 14 13 10 7 8 8 9 9 10 11 11 12 12 10 9 8 8 7 6 6 7 8 9 10 11 12 14 15 15 15 15 15 15 15 17 18 19 20 21 22 23 23 24 24
14 15 15 15 15 17 16 13 11 10 9 11 12 12 13 14 14 15 14 12 10 9 8 7 7 9 10 11 10 11 12 14 15 16 15 14 14 15 17 18 19 20 20 20 21 22 23 24 25
18 18 18 17 17 18 17 16 15 14 14 16 17 15 14 16 17 17 17 15 12 11 9 8 8 9 10 10 10 10 12 13 14 14 14 15 16 16 17 18 18 18 20 22 24 26 27 28 29
22 20 20 21 20 20 20 20 19 19 18 19 20 18 16 18 19 18 17 16 14 12 10 8 8 8 9 9 9 10 10 11 13 14 15 16 15 16 17 17 18 20 23 25 28 30 31 33 34
25 23 24 25 25 25 23 23 25 25 23 23 21 18 17 19 21 19 16 15 15 14 11 9 8 7 8 9 9 10 10 11 13 15 15 16 16 16 17 18 20 22 24 26 29 32 34 36 38
28 27 27 30 31 30 26 23 30 28 27 25 23 19 17 19 20 19 15 15 15 14 11 10 8 8 8 9 10 11 12 13 14 15 16 16 17 18 19 20 21 22 25 28 31 33 35 37 40
31 32 31 32 35 34 31 28 36 31 30 28 26 22 19 19 21 20 16 15 15 14 13 12 11 10 11 12 13 15 16 17 17 18 18 18 19 21 22 23 24 26 28 31 33 35 37 39 41
34 36 36 36 38 36 38 38 40 37 34 32 29 26 23 21 23 21 19 18 17 16 16 15 15 14 14 15 16 18 19 21 22 22 23 24 25 27 28 29 30 32 33 35 37 38 40 41 43
36 36 37 38 41 37 41 44 44 41 38 36 34 31 27 25 25 25 24 22 21 20 20 21 20 19 19 20 21 22 23 24 26 27 27 29 30 32 34 35 36 37 38 39 41 44 45 46 47
35 36 37 37 39 40 43 45 45 42 41 40 39 35 31 28 27 29 30 28 27 26 26 27 26 23 22 24 25 27 28 30 30 31 32 34 35 37 38 40 41 43 44 44 47 49 50 51 52
36 37 37 38 40 41 44 45 44 44 42 41 40 38 34 31 29 30 33 32 31 30 30 32 31 28 26 27 29 31 33 34 36 38 39 41 42 43 44 45 47 49 51 52 52 53 53 54 56
34 36 38 39 39 40 45 45 38 43 41 40 40 38 36 33 31 31 32 32 32 33 34 35 35 32 31 31 33 34 36 38 40 43 45 48 50 51 52 53 54 56 56 56 56 56 56 57 59
33 35 36 37 39 41 44 46 38 41 41 37 37 38 38 36 34 34 34 34 35 36 37 37 37 36 36 35 35 36 39 42 45 48 50 54 56 57 57 58 59 60 60 58 57 57 57 59 61
31 31 33 35 37 42 40 41 38 32 35 33 35 36 38 38 38 37 38 38 39 40 41 42 41 40 38 36 36 38 41 45 48 50 51 52 53 53 53 54 55 56 57 57 57 57 58 60 62
29 29 30 30 33 35 32 38 35 31 34 34 34 35 36 38 39 38 39 39 40 42 44 45 43 40 38 37 38 41 44 45 46 47 46 46 47 46 46 48 49 51 53 55 57 58 60 61 61
30 31 30 28 25 24 26 33 28 31 34 33 33 32 32 32 32 33 35 37 38 40 41 41 39 38 37 38 40 42 42 42 43 45 44 44 45 46 46 48 50 52 54 57 59 60 61 61 59
28 29 28 30 30 30 29 29 30 32 29 29 29 30 29 28 29 29 31 32 33 34 35 36 36 37 38 40 41 42 41 43 45 44 43 44 46 47 48 51 53 55 57 58 59 60 60 59 58
29 28 28 31 30 31 30 28 26 24 24 24 24 24 25 26 27 28 29 29 29 30 32 33 35 38 40 40 41 41 43 44 45 45 45 46 47 49 51 53 54 55 56 58 59 59 59 58 57
29 31 31 29 26 27 29 27 25 28 26 24 22 21 21 23 25 26 28 29 30 31 33 35 37 38 39 38 40 44 45 47 46 46 46 46 48 50 52 53 54 55 57 58 59 58 58 57 57
31 31 30 29 27 28 29 27 27 28 26 23 22 22 21 23 25 27 29 30 32 33 36 37 38 39 39 41 44 46 49 48 47 47 46 47 49 50 51 52 54 56 57 57 57 57 57 57 58

GEFSSGP_500_meanwind_018.txt.gz
Wind_Speed
22 21 18 14 10 6 2 3 11 18 18 15 15 16 19 15 16 16 16 16 13 13 11 11 10 11 11 11 12 12 11 12 13 14 15 15 15 15 15 16 16 17 17 17 18 18 18 17 18
19 18 15 13 10 5 4 5 20 22 16 8 13 15 17 12 14 15 15 14 11 11 10 10 9 8 9 9 9 9 9 10 11 13 14 15 16 17 17 18 18 18 18 19 19 19 19 18 18
14 12 11 11 12 6 4 13 23 20 12 13 17 15 14 12 12 12 12 12 11 11 11 11 10 9 8 8 8 9 9 10 11 13 14 15 16 16 16 17 17 17 17 18 18 19 19 19 19
10 10 11 13 12 1 8 13 13 15 14 14 15 16 12 12 11 10 9 9 8 9 11 12 12 11 10 10 10 10 10 11 13 14 14 15 15 14 13 13 13 13 13 14 15 16 17 17 18
10 11 15 15 9 2 10 6 7 13 12 11 12 15 12 11 11 10 8 7 5 5 8 10 11 12 12 12 12 12 13 14 14 15 14 14 13 13 12 12 12 12 13 13 14 14 15 16 17
13 16 18 12 4 6 10 9 9 7 7 8 10 14 12 12 11 9 8 6 5 5 7 8 9 10 11 12 13 14 14 14 14 14 13 13 13 13 13 14 14 15 15 16 16 16 16 16 17
15 20 17 8 6 10 10 8 7 6 6 6 8 13 12 12 12 10 8 7 5 5 7 9 9 9 10 11 12 12 12 12 13 14 14 14 14 15 16 17 17 18 18 18 18 19 19 19 20
14 16 18 9 8 11 11 8 6 6 8 6 7 14 12 13 13 12 10 8 7 6 7 7 8 9 9 10 11 11 12 13 14 15 16 16 17 17 18 19 19 19 19 19 20 20 20 21 21
13 13 16 9 7 12 11 7 7 8 7 6 11 12 11 13 14 13 12 10 9 8 7 7 8 9 9 10 10 11 12 13 15 16 17 17 18 18 19 19 19 19 18 18 19 19 19 19 19
14 16 12 6 10 10 10 10 10 7 8 8 11 10 10 12 14 14 13 11 10 9 9 8 9 10 11 12 13 13 14 15 16 17 17 17 17 16 17 17 18 18 17 18 18 18 18 18 18
15 16 12 9 17 16 11 11 11 9 10 14 15 12 13 12 16 15 14 13 11 11 11 11 11 11 12 14 16 16 16 16 16 16 17 16 16 15 15 15 15 15 15 16 17 17 17 17 18
16 19 15 13 19 24 18 11 14 13 14 17 18 15 16 17 18 18 17 15 14 13 12 12 13 14 14 15 16 17 17 16 16 16 15 15 14 14 14 14 14 15 15 16 17 17 17 19 21
17 20 19 18 18 19 18 15 16 17 17 18 18 18 19 20 20 18 18 19 18 17 16 14 15 16 16 16 17 17 16 15 15 15 15 15 14 15 15 15 16 16 17 17 19 20 19 21 22
20 21 23 21 20 18 18 18 18 18 16 17 16 20 23 22 22 18 16 21 21 20 19 18 17 16 16 16 17 17 16 16 15 15 16 17 16 16 17 16 18 19 20 21 22 21 22 23 24
24 24 25 24 21 19 17 18 16 16 18 21 20 22 26 26 22 22 20 22 22 21 21 20 18 16 16 16 18 19 18 18 17 17 18 18 17 19 20 19 20 23 24 24 26 27 27 29 30
27 27 26 23 22 20 19 21 16 17 22 25 25 23 25 28 27 26 25 23 21 21 22 21 20 17 17 17 20 20 21 20 20 19 20 21 21 22 23 23 25 27 28 30 32 33 34 37 38
29 28 27 23 21 19 21 23 18 18 27 31 29 26 26 29 32 31 28 24 23 22 22 23 22 20 21 20 23 23 24 23 23 23 23 24 25 25 26 27 29 31 32 34 36 37 39 41 43
26 24 23 22 18 21 26 27 24 21 27 31 31 31 30 31 35 35 31 27 23 23 24 26 26 24 25 25 27 28 29 29 28 27 27 28 29 30 30 31 34 36 38 39 41 43 45 47 49
24 22 20 20 19 23 30 33 32 28 29 32 33 33 33 33 37 39 36 29 25 24 25 28 29 29 31 31 32 33 34 34 33 33 33 33 33 34 35 36 38 40 43 45 46 48 50 52 54
25 28 28 27 26 27 29 32 35 36 34 32 36 38 37 36 40 42 40 35 31 27 28 31 33 34 36 37 37 38 38 39 39 38 38 38 38 38 39 40 42 44 47 49 51 52 53 55 56
25 27 29 30 31 33 34 36 38 42 39 37 38 42 43 39 41 44 42 39 36 33 31 33 36 38 39 40 41 42 43 43 44 43 43 43 42 41 41 43 45 48 49 49 50 49 51 52 54
24 25 27 29 31 33 33 36 36 36 33 32 33 38 42 38 39 43 43 41 38 35 33 35 37 39 41 42 44 45 47 47 47 47 47 47 44 43 43 44 45 46 46 46 48 49 51 52 55
19 19 21 23 27 32 33 37 36 32 29 31 30 33 39 38 36 39 39 40 39 35 34 36 38 40 42 44 47 48 49 49 49 49 48 46 43 43 43 43 42 44 45 46 49 51 53 55 59
16 17 20 22 24 29 27 29 32 28 27 29 26 30 34 34 34 35 36 37 37 36 35 37 39 41 43 45 47 49 50 49 49 49 47 45 45 44 43 43 44 45 46 48 51 53 56 59 61
19 18 18 19 21 21 17 21 22 20 21 25 26 29 31 32 36 37 35 35 36 35 36 37 40 42 43 45 47 48 49 48 47 46 46 46 46 46 46 45 46 48 49 51 53 56 59 61 62
20 21 19 18 19 18 16 17 16 17 19 24 29 33 36 38 39 38 36 35 35 35 36 38 40 41 43 44 45 46 46 44 44 45 45 47 48 48 48 49 50 51 53 54 56 58 61 62 62
21 23 20 21 21 23 23 23 21 20 23 25 27 29 32 34 33 32 32 33 34 35 36 37 38 39 40 41 42 43 44 44 44 46 47 48 50 51 51 52 52 53 54 56 58 60 61 62 62
23 21 22 24 24 25 23 20 18 19 21 22 24 26 29 29 27 27 30 33 35 35 36 37 37 38 40 41 42 43 44 45 46 47 47 50 52 52 52 53 53 55 56 57 58 59 60 61 63
21 21 22 24 25 25 25 21 18 22 24 24 23 25 30 30 29 30 32 32 33 34 36 36 37 38 40 42 44 45 45 47 47 48 49 51 52 52 52 53 54 55 57 59 59 59 60 62 64
23 25 25 27 27 27 29 27 24 29 30 29 28 30 37 37 33 31 31 31 32 33 34 36 38 40 42 44 45 46 48 49 51 51 50 51 52 52 53 54 56 58 60 59 59 59 61 63 64

GEFSSGP_500_meanwind_024.txt.gz
Wind_Speed
19 17 15 14 13 12 9 8 8 8 10 13 16 19 20 17 15 13 12 11 11 11 10 11 11 11 12 12 13 15 16 16 16 17 17 17 17 18 18 19 19 19 20 20 20 20 21 21 21
22 19 16 15 14 13 12 10 8 9 11 13 15 17 16 14 11 11 10 10 10 9 9 10 10 10 10 11 11 12 12 13 13 14 15 15 16 17 19 19 20 21 22 22 23 23 23 23 23
18 17 16 16 16 15 13 11 7 8 13 15 14 14 12 8 7 7 8 8 9 9 8 9 9 9 10 11 11 11 11 11 12 12 13 14 16 17 19 20 22 23 23 24 24 23 23 23 24
14 14 16 17 18 16 13 9 6 7 12 13 12 10 7 4 6 7 8 9 9 8 7 6 7 8 9 10 10 11 11 11 12 13 14 15 16 18 19 20 21 22 22 22 22 21 20 20 21
14 15 18 20 20 16 12 6 3 7 10 10 8 6 4 5 8 8 8 9 8 7 6 6 6 6 7 8 9 9 10 11 12 12 13 14 15 17 18 18 19 19 19 19 18 18 18 18 19
15 19 23 24 21 16 10 4 2 7 10 9 7 5 5 7 9 9 9 9 8 7 7 6 6 6 6 7 7 8 9 9 10 11 12 13 14 15 15 16 17 18 18 18 18 19 19 19 20
18 23 24 23 19 14 8 1 6 10 12 11 7 5 7 9 11 10 10 9 8 8 9 9 8 7 6 6 6 7 8 8 8 10 11 13 14 15 16 17 18 19 19 20 20 20 21 21 21
22 26 25 23 18 12 5 1 6 12 14 11 7 6 8 9 11 11 12 11 10 9 10 10 9 8 7 6 6 7 8 8 9 11 12 14 15 16 17 19 19 20 21 21 21 21 20 21 22
24 27 26 23 19 14 9 4 9 13 13 9 7 6 8 9 10 12 13 13 11 10 10 10 10 9 9 8 8 8 9 10 11 12 13 15 15 16 17 18 19 19 19 20 20 20 20 21 21
26 27 25 24 21 18 14 10 12 14 14 11 7 6 7 8 10 12 13 13 11 11 10 10 10 11 10 10 10 10 11 12 12 12 13 14 14 15 16 16 17 17 18 18 18 18 19 20 20
28 27 26 24 21 19 14 12 13 15 15 14 11 10 10 9 10 12 11 12 11 12 12 11 11 11 11 11 11 11 12 13 13 12 12 13 13 13 13 13 14 15 15 15 14 15 16 17 18
28 28 26 24 22 19 15 14 15 16 16 15 14 14 15 12 12 12 13 12 10 12 13 14 14 13 12 11 11 11 12 12 13 13 12 12 12 12 12 11 12 13 13 14 13 14 15 16 18
27 29 26 25 23 20 19 18 19 20 19 17 16 16 17 16 15 15 14 13 12 14 15 15 16 15 12 10 10 10 12 13 13 14 14 13 13 13 13 12 13 13 14 15 15 16 17 18 20
27 31 30 29 25 21 22 24 24 23 22 21 19 19 21 21 20 19 17 16 17 18 18 19 17 14 12 10 10 10 12 14 15 15 16 16 16 17 17 17 17 17 18 19 21 21 22 23 24
30 32 30 28 26 22 22 25 27 25 26 25 22 22 24 25 25 24 22 20 22 22 21 22 20 18 16 13 10 10 11 14 16 17 18 18 19 20 21 23 23 24 25 26 27 28 29 30 30
33 32 29 28 26 23 23 23 24 27 29 28 25 24 27 29 30 29 27 25 27 26 23 26 25 24 23 20 15 13 13 15 17 20 21 22 23 24 26 28 29 30 32 32 33 35 36 37 37
33 32 29 29 27 23 23 19 19 26 29 28 27 26 28 31 33 33 33 31 31 28 27 28 29 31 29 25 22 19 18 18 21 23 25 26 27 29 30 32 34 35 37 38 39 39 40 42 42
32 33 32 29 25 23 22 19 17 22 26 27 26 27 30 33 34 36 36 35 33 32 32 32 32 34 32 30 29 27 25 24 25 27 29 30 32 33 34 36 38 39 40 41 42 43 44 44 45
31 34 34 30 26 27 24 21 19 20 24 25 27 30 33 35 36 37 37 37 36 36 36 36 36 35 37 36 34 31 30 29 30 32 34 35 36 37 39 40 41 42 43 43 44 44 45 46 46
33 34 33 29 29 30 28 26 24 24 25 27 29 32 35 38 39 39 40 40 39 38 38 39 39 40 39 39 38 36 33 33 35 36 37 38 39 41 43 44 44 44 44 44 43 44 45 45 46
32 32 30 28 29 31 32 31 27 26 26 29 32 34 37 40 41 41 42 42 41 40 39 40 42 43 42 41 41 38 37 37 38 38 39 40 42 43 44 44 44 44 45 44 43 43 44 46 47
28 27 28 28 31 33 34 36 30 28 29 31 32 34 36 39 40 42 40 39 38 38 39 42 44 45 46 45 42 39 38 37 37 38 40 41 43 44 45 46 45 46 46 45 45 45 46 48 50
24 22 24 26 29 32 34 37 33 31 33 35 36 38 39 40 41 40 37 36 36 37 41 43 45 48 47 42 40 37 35 36 37 38 40 42 43 45 46 46 47 47 47 48 48 49 50 51 53
19 20 24 27 28 28 24 29 28 24 31 36 40 42 42 41 39 37 35 35 36 39 42 44 47 46 44 42 39 37 36 36 38 39 41 42 44 45 46 47 48 49 49 50 51 52 53 55 57
21 22 24 26 25 20 15 21 17 17 23 28 31 33 33 34 33 33 32 33 36 40 43 45 47 47 46 44 41 39 37 38 40 41 43 44 46 47 48 49 49 50 50 51 53 55 57 59 60
21 23 24 23 21 18 18 19 14 17 20 21 22 23 25 26 28 30 31 33 37 41 44 46 46 46 45 43 41 40 40 41 43 44 45 47 48 49 50 50 51 51 52 54 57 58 60 61 62
21 23 22 23 22 22 21 19 18 19 20 22 23 24 25 27 29 31 33 36 39 42 43 44 43 41 40 40 40 41 43 44 45 47 48 50 52 52 53 54 54 55 57 59 60 62 63 64 63
25 22 24 26 25 25 23 20 21 23 24 25 27 28 29 30 32 34 36 39 41 42 43 42 40 37 37 37 39 42 44 45 47 49 51 53 54 55 56 57 58 59 61 62 63 64 65 64 64
28 28 28 26 25 25 23 22 23 24 27 29 30 31 32 34 35 37 38 40 42 43 42 43 38 34 35 37 40 42 45 47 49 51 53 55 56 57 58 60 62 63 63 64 65 64 63 63 64
27 31 32 31 27 25 24 27 28 29 29 30 32 34 36 37 38 38 40 41 43 44 43 40 35 34 36 39 42 45 47 49 51 53 55 56 58 60 62 64 65 64 63 64 66 64 63 63 62

GEFSSGP_500_meanwind_030.txt.gz
Wind_Speed
17 16 16 16 15 14 13 11 8 7 6 6 8 9 8 9 9 9 7 6 5 5 5 6 6 5 4 4 5 5 6 7 7 7 8 8 9 9 10 11 12 13 14 15 16 17 17 18 18
18 17 17 17 16 16 15 12 8 8 7 6 8 9 8 8 8 8 7 6 5 5 5 5 5 5 5 5 5 5 6 6 6 7 7 7 8 8 10 11 12 14 15 16 17 18 18 18 19
19 19 19 18 17 16 16 13 10 8 6 5 8 9 8 8 7 7 7 6 6 6 5 5 5 5 5 6 6 5 5 6 6 6 7 7 8 9 10 11 12 14 15 16 16 17 17 17 17
18 19 19 19 17 17 16 14 11 8 6 4 6 8 8 9 8 6 6 7 8 7 7 7 7 6 6 6 7 6 6 6 6 6 7 7 8 9 10 11 12 13 13 14 15 15 15 14 14
18 19 19 19 19 17 17 15 11 8 4 2 4 7 9 9 8 7 7 9 9 9 9 8 8 8 8 7 7 7 7 6 6 7 7 7 8 9 9 10 11 12 12 13 14 15 15 15 14
17 18 19 21 22 20 20 16 11 6 3 2 4 7 9 8 8 8 9 10 11 10 10 10 9 9 9 8 8 7 7 7 7 6 6 7 8 9 10 11 12 13 13 15 16 17 17 17 16
16 18 20 24 26 24 22 16 11 7 5 4 6 7 8 8 8 10 11 12 13 12 11 11 11 10 10 10 9 8 7 7 7 7 7 7 8 9 10 11 12 14 15 16 17 18 18 18 17
16 19 22 27 28 26 22 17 13 10 7 7 7 6 7 7 9 10 12 13 14 13 13 13 13 12 12 11 10 9 9 8 8 8 8 8 9 9 10 10 11 13 14 15 16 17 17 17 16
17 21 25 29 30 28 23 19 15 11 8 8 6 4 5 6 8 10 12 14 14 14 15 15 15 14 14 13 12 11 10 10 10 9 9 9 9 9 9 9 10 11 12 13 14 15 15 15 15
18 24 28 30 31 29 25 20 17 12 9 8 6 2 2 5 7 8 10 12 13 14 15 16 16 16 16 15 14 13 12 11 11 10 9 9 8 8 8 8 8 9 9 11 12 13 13 14 15
20 27 29 30 29 28 26 22 18 13 10 8 6 3 2 4 6 7 9 10 12 13 15 17 17 17 17 16 15 14 13 12 11 10 10 9 8 8 7 7 8 9 9 10 12 13 14 15 16
24 30 30 29 28 27 26 23 19 15 12 10 8 6 4 5 7 8 9 10 12 14 15 16 19 18 16 16 16 16 16 15 14 12 11 9 9 8 8 8 8 9 10 12 13 15 16 17 18
28 32 31 30 28 28 26 24 20 17 16 14 11 8 6 7 9 9 10 11 12 14 16 18 20 18 18 17 18 18 18 18 16 14 13 11 10 10 9 9 10 11 12 13 15 17 18 20 21
32 34 32 31 30 28 28 25 22 19 18 17 15 12 10 11 12 12 13 13 14 15 17 19 20 20 20 20 20 20 19 19 18 17 15 14 13 13 12 13 14 14 15 17 18 20 22 23 25
33 34 33 32 32 31 29 27 24 21 20 18 18 16 15 15 16 15 15 15 15 16 19 20 21 22 23 23 23 22 20 21 22 21 19 19 18 17 17 17 18 18 19 20 22 24 25 27 29
33 34 35 34 34 33 31 29 27 24 23 22 21 20 20 20 19 18 17 17 18 18 20 22 23 25 25 25 25 25 25 25 25 26 25 24 23 22 22 22 23 23 23 24 25 26 28 30 31
33 35 35 36 35 35 32 29 29 27 26 26 26 25 24 24 22 20 19 19 20 20 22 24 26 28 29 28 28 29 30 29 30 30 30 29 28 28 27 27 27 28 28 28 29 30 31 33 34
34 35 36 38 38 36 35 30 29 29 29 30 30 30 29 27 25 22 20 20 21 22 24 26 28 31 32 33 33 33 33 35 35 34 34 34 33 32 31 31 31 32 32 32 32 32 33 34 35
36 37 38 38 40 40 39 35 31 32 32 33 33 33 32 30 27 25 23 23 23 23 25 27 29 32 34 35 36 37 38 39 38 36 34 35 35 34 34 34 35 34 34 33 34 33 34 35 36
37 38 37 38 41 44 44 41 36 34 36 36 35 35 33 32 30 28 27 26 25 25 26 28 30 33 35 37 39 40 41 40 39 37 35 33 33 34 35 34 34 34 33 33 32 33 35 38 39
37 37 36 37 41 44 45 45 41 38 38 37 36 36 35 33 31 30 30 29 28 27 28 31 33 35 37 39 41 42 42 41 39 33 31 30 31 32 31 30 32 32 32 34 36 37 39 41 42
34 32 34 37 39 42 44 45 42 40 40 39 38 37 37 35 33 32 32 32 31 31 33 35 37 39 41 42 43 43 43 40 34 31 29 27 27 28 28 29 31 32 35 38 39 41 43 45 46
30 30 33 36 38 40 41 43 40 39 39 38 39 39 39 37 35 34 34 34 34 36 38 39 41 43 44 44 44 45 42 38 33 30 29 27 28 29 29 30 33 36 39 42 44 45 47 48 50
31 33 35 36 37 38 36 39 40 37 37 37 38 39 38 37 36 34 34 36 37 39 41 43 44 44 45 46 46 44 39 37 35 33 31 30 30 31 33 35 38 40 43 45 48 50 51 52 54
34 35 35 36 36 36 32 36 38 36 36 37 38 38 38 37 37 37 37 38 39 40 41 42 42 43 43 43 43 42 38 38 37 35 32 31 32 34 37 39 42 44 47 49 51 52 54 57 58
33 34 34 35 34 32 31 34 34 34 34 34 34 34 34 34 34 35 36 36 37 38 38 38 39 40 41 42 42 41 41 39 38 35 33 34 36 38 40 42 45 47 50 53 54 56 59 61 62
31 32 31 33 32 31 31 32 31 30 30 30 31 31 31 32 32 32 32 32 33 33 34 35 36 39 41 42 43 43 41 40 40 37 37 39 40 42 44 46 49 52 54 57 58 61 63 65 67
32 32 32 32 31 30 31 29 28 28 29 29 30 30 31 31 31 31 31 31 31 33 34 36 38 40 42 44 45 44 42 42 41 40 41 42 44 46 48 50 53 56 59 61 62 64 66 68 68
34 34 34 33 31 29 29 28 27 28 28 29 30 31 32 31 31 31 31 32 33 35 37 40 42 44 45 46 46 46 45 45 45 44 45 46 48 50 52 55 57 60 62 64 65 66 67 67 67
35 35 34 33 32 30 29 29 29 28 29 30 31 31 31 32 32 32 32 34 36 38 40 43 45 46 48 48 48 48 48 47 47 47 48 49 51 53 55 57 59 62 63 65 65 65 65 64 63

GEFSSGP_500_meanwind_036.txt.gz
Wind_Speed
23 22 20 18 16 14 11 11 8 6 5 4 4 4 3 3 2 2 1 0 1 1 2 2 2 2 2 2 3 3 3 3 3 3 3 3 3 4 4 5 5 6 6 6 6 7 8 9 10
24 23 21 19 18 14 12 14 11 7 5 4 4 3 1 0 1 3 3 3 2 2 3 3 3 2 2 1 2 2 2 2 2 2 2 3 3 4 5 5 6 6 6 7 7 8 9 10 11
23 23 22 22 21 18 17 16 13 8 5 3 2 1 1 3 5 5 5 5 4 5 5 5 5 4 3 1 0 1 1 1 2 2 2 3 4 5 6 6 7 7 7 7 7 8 8 9 10
22 22 22 23 22 22 21 18 14 9 5 3 1 1 3 6 7 7 7 6 6 6 6 6 5 4 3 2 1 0 0 1 2 2 3 4 5 6 7 7 7 7 7 7 7 7 8 9 10
20 21 22 22 22 23 22 18 13 9 6 4 3 3 5 8 9 8 8 8 8 8 8 7 6 5 4 3 2 1 1 1 2 3 4 5 6 6 7 8 8 8 8 8 8 8 9 10 11
19 19 21 22 23 24 23 19 15 10 8 6 6 6 7 9 10 9 9 9 9 10 10 9 8 7 7 5 4 3 2 2 2 3 4 5 6 7 8 8 9 9 9 10 10 10 10 11 12
16 17 19 23 27 26 24 19 16 12 10 9 9 9 9 10 11 11 10 10 11 11 11 11 10 9 8 7 6 5 5 4 4 5 5 6 7 8 9 10 10 10 10 11 11 10 11 11 12
14 15 18 25 28 27 24 19 16 14 13 11 11 11 11 11 11 11 10 10 10 10 10 9 9 9 8 8 7 6 6 6 6 7 7 8 9 9 10 10 10 11 10 10 10 10 10 10 10
14 15 18 25 29 28 24 20 17 15 13 13 13 13 12 11 10 10 8 8 8 8 8 8 8 8 8 8 7 7 7 7 8 8 9 9 10 11 11 11 11 10 10 9 9 8 8 8 8
13 14 19 25 29 28 24 20 18 16 14 15 15 14 12 10 9 8 6 5 5 6 6 6 7 8 7 7 7 8 8 8 8 8 9 9 10 11 12 12 12 11 10 9 9 9 8 8 8
14 16 20 24 27 26 23 21 20 17 16 16 16 14 12 9 8 6 4 3 3 4 5 6 8 8 7 8 8 9 9 9 9 9 9 10 11 12 13 13 13 12 11 11 10 10 10 10 10
16 18 20 22 24 24 24 22 21 19 18 18 17 14 12 9 7 5 3 1 2 4 6 8 9 10 9 10 11 11 12 12 12 12 12 12 13 14 14 15 15 14 14 13 13 13 12 12 12
19 20 21 22 22 23 23 23 22 20 20 18 15 13 12 10 8 6 4 3 4 6 8 9 11 12 12 12 13 13 14 14 14 15 15 16 17 17 17 17 17 17 17 17 17 16 15 15 15
22 22 21 21 21 22 23 23 22 21 21 19 16 13 13 11 10 9 7 6 7 8 9 11 13 14 15 15 15 15 15 16 17 18 18 19 20 21 22 22 21 21 21 21 21 20 20 20 20
24 23 22 21 22 22 21 21 22 23 21 20 18 16 14 13 13 12 11 11 10 11 12 14 15 15 16 17 18 18 18 19 20 22 22 23 24 26 26 26 26 26 26 25 25 24 24 24 24
25 25 25 25 24 23 22 21 23 23 22 21 20 18 15 15 15 15 15 14 14 14 15 16 17 17 18 19 20 21 22 24 26 27 28 29 30 31 32 32 31 31 31 30 30 29 29 28 28
28 27 28 29 27 25 25 24 24 22 22 22 22 20 18 17 16 17 18 19 19 19 19 20 20 20 21 22 23 25 26 28 30 32 34 36 36 36 36 36 37 37 36 36 35 34 33 32 31
30 30 32 32 31 29 28 29 27 25 24 24 24 23 21 19 19 21 22 23 23 23 23 23 23 23 23 25 27 28 30 32 35 37 38 39 39 39 39 38 38 39 39 39 38 36 35 34 33
32 32 35 37 34 32 33 32 31 29 28 27 27 27 25 24 23 23 24 26 26 26 27 26 26 26 27 28 30 32 34 35 39 41 42 41 38 36 36 36 37 38 39 38 38 38 37 35 33
34 34 35 38 37 37 37 36 34 34 33 31 31 30 30 29 28 27 26 27 28 28 29 29 29 29 30 32 34 35 37 39 42 43 41 38 35 33 34 34 33 34 35 36 36 35 34 33 32
34 35 36 38 40 40 39 38 38 38 37 35 34 34 34 33 32 32 31 30 29 29 30 31 31 33 34 35 36 38 40 41 42 42 41 39 37 32 31 31 30 29 31 33 32 32 32 31 30
32 34 36 37 39 40 43 41 37 41 41 39 38 38 37 37 37 36 34 32 31 31 32 33 34 36 37 38 38 40 41 43 43 44 42 41 35 32 30 28 27 25 27 28 29 29 29 30 32
32 33 35 37 39 41 42 41 36 42 42 42 42 41 41 41 40 38 36 34 33 33 33 35 36 37 38 39 40 41 41 42 44 42 40 39 34 32 29 28 27 26 27 27 28 30 32 34 35
32 33 34 36 38 40 40 40 35 41 42 41 42 42 42 42 41 38 36 34 33 33 34 35 36 38 39 40 40 40 40 41 41 39 39 37 35 34 32 30 29 29 29 31 33 35 37 38 40
32 32 31 32 35 34 36 37 35 42 39 38 38 38 38 37 37 35 34 32 32 32 33 34 35 36 37 38 38 38 38 38 38 38 37 36 35 34 33 32 32 33 34 35 37 38 40 43 45
30 31 30 25 23 23 31 31 36 37 35 34 33 32 32 31 31 31 30 29 29 30 31 33 34 35 36 37 37 37 37 37 37 37 37 36 36 36 35 35 35 36 38 39 41 43 45 48 50
28 30 28 29 26 22 21 29 34 32 31 30 29 28 28 27 27 27 27 27 27 29 30 31 33 34 36 36 36 36 37 37 37 38 38 39 39 39 39 39 40 41 42 44 46 48 50 51 53
27 26 29 30 26 23 22 24 26 29 28 27 26 26 26 26 25 25 26 27 28 29 30 31 33 34 35 36 36 37 38 39 39 40 41 42 43 43 44 44 45 46 46 48 49 51 53 54 56
24 27 28 27 24 22 19 20 25 25 24 24 25 25 25 25 25 26 27 29 30 31 32 33 34 35 36 37 38 39 40 41 42 44 45 46 46 47 47 48 48 48 49 50 52 53 54 56 57
22 23 26 26 25 26 22 24 25 23 22 22 23 24 25 26 26 28 29 31 32 33 34 36 37 38 39 40 41 42 43 44 46 47 49 50 50 50 49 49 50 50 51 52 53 54 55 57 57

GEFSSGP_500_meanwind_042.txt.gz
Wind_Speed
22 19 18 15 12 10 2 3 6 11 14 13 14 13 14 17 15 13 13 11 7 8 7 7 6 7 7 8 8 8 8 9 10 11 11 12 12 11 11 11 11 11 11 11 11 12 12 12 11
24 22 20 18 16 10 4 8 9 13 15 13 13 12 14 15 11 11 10 9 6 7 6 6 6 6 6 6 6 6 6 7 8 9 10 10 10 10 10 10 10 10 10 10 11 12 12 12 12
26 24 23 22 20 12 6 6 8 11 12 12 11 11 12 10 9 8 8 7 6 6 5 5 5 5 5 5 5 5 5 6 7 7 8 8 8 9 9 9 9 9 10 11 12 12 12 12 12
28 27 26 25 23 14 8 9 10 8 10 10 9 9 9 8 7 7 7 7 6 6 6 5 5 4 4 4 3 3 4 5 5 5 6 6 7 7 7 8 8 9 10 10 11 11 11 11 11
29 29 29 28 27 18 11 12 14 11 11 9 9 10 8 6 6 7 7 7 6 6 6 5 5 4 3 3 2 2 2 2 3 4 5 5 6 6 6 7 8 8 9 10 11 11 11 11 11
30 30 30 28 24 17 12 14 17 15 12 10 9 12 8 5 6 7 7 6 6 6 6 5 5 4 3 2 2 1 0 1 2 3 4 5 5 6 6 7 8 9 10 11 11 12 12 12 12
28 29 29 26 22 17 14 16 18 16 13 12 10 12 9 6 6 7 7 7 6 6 6 5 5 4 3 3 2 1 1 2 3 4 5 5 6 6 7 8 8 9 10 11 12 12 13 13 13
25 28 28 27 24 21 17 18 20 18 14 14 12 13 11 7 7 7 7 7 7 6 5 4 3 3 2 2 2 2 2 3 4 5 6 6 7 7 8 9 9 10 11 12 12 13 13 13 12
23 26 25 25 22 18 15 18 19 17 18 16 14 18 18 11 9 8 7 6 6 5 3 2 2 2 2 3 4 5 5 6 6 7 7 8 8 9 9 10 10 11 12 13 13 14 14 13 13
20 19 18 21 19 16 16 18 17 18 18 15 15 19 14 10 10 9 8 6 5 3 1 0 1 3 4 5 6 7 7 8 9 9 9 9 10 10 11 12 12 13 13 14 14 15 15 15 14
17 16 18 20 19 21 19 20 21 21 18 17 18 19 13 10 12 11 10 8 6 4 3 3 4 5 7 8 9 9 10 11 11 11 12 12 12 13 13 14 15 16 16 16 16 17 17 17 17
19 18 20 21 22 25 26 24 22 22 20 19 20 21 17 14 13 12 11 9 7 6 6 6 7 8 9 10 11 12 12 13 13 13 14 15 15 16 17 17 18 20 20 19 19 20 20 20 20
20 19 20 21 21 22 26 27 26 24 23 23 24 24 20 14 14 14 12 11 9 8 9 9 11 12 13 13 14 15 15 15 15 17 18 19 19 20 21 22 24 25 25 25 24 23 23 23 24
22 21 20 19 18 18 21 25 26 25 24 23 21 18 15 16 15 15 15 12 10 10 11 12 13 14 16 17 17 18 18 18 18 20 22 23 24 25 26 27 28 29 29 28 27 26 26 27 28
24 23 21 17 15 15 17 21 23 22 22 22 18 16 18 18 16 16 16 14 13 12 12 13 15 16 18 19 20 20 20 21 22 23 25 26 28 28 28 30 29 30 30 31 31 31 29 30 31
25 24 21 16 15 15 17 18 19 20 22 22 20 20 22 21 18 18 17 17 17 15 14 15 16 17 19 21 22 23 23 23 25 26 27 29 31 31 30 30 29 30 31 31 32 33 32 33 34
24 22 20 17 15 15 16 16 15 17 21 22 21 23 24 23 19 20 21 20 18 16 15 16 18 19 21 23 24 26 26 26 27 29 30 31 32 31 30 31 31 32 32 32 31 31 32 33 34
20 18 17 16 16 16 15 16 16 18 21 23 23 22 21 20 21 22 24 22 20 16 16 18 21 22 23 25 27 28 28 28 30 31 32 33 33 32 32 32 32 32 31 31 30 29 31 33 34
20 15 15 13 16 19 18 20 20 19 20 22 22 21 22 22 22 23 24 24 22 19 19 21 24 25 27 28 29 30 30 31 32 33 35 34 35 34 33 32 32 31 31 31 30 28 29 31 32
27 23 20 17 18 23 23 23 24 21 20 23 25 24 25 26 27 27 27 27 26 24 23 24 26 28 30 32 32 32 33 33 34 35 36 37 36 35 34 33 32 31 30 31 30 29 29 29 29
30 28 23 20 21 27 29 27 27 26 24 27 29 28 30 31 31 30 30 29 29 29 28 28 29 31 33 34 34 35 36 36 36 37 38 39 38 37 35 34 33 32 31 30 30 30 30 29 28
31 30 28 26 25 25 28 28 27 27 28 30 31 33 35 33 31 32 32 32 34 34 34 32 33 34 35 35 36 37 38 38 39 40 40 40 39 37 37 36 34 33 31 31 31 31 31 31 31
28 27 27 29 31 31 29 27 23 23 27 30 33 37 36 33 33 34 36 36 36 36 37 36 36 36 36 37 37 38 39 40 41 42 42 41 39 39 38 37 36 35 34 33 33 33 33 34 35
26 24 24 28 32 35 32 29 24 24 28 34 38 39 37 35 34 35 36 37 38 39 39 39 38 37 37 38 39 40 41 42 43 43 43 42 41 40 40 38 38 37 37 36 36 36 36 37 38
26 26 24 25 29 31 26 28 28 30 33 36 38 40 40 40 39 38 38 38 39 39 39 39 37 37 37 38 40 41 41 42 43 43 43 42 42 41 41 40 39 40 40 39 39 39 39 40 42
25 25 25 20 16 15 17 22 27 33 37 38 40 42 43 44 43 42 40 38 37 37 37 36 36 37 37 38 39 40 41 42 43 43 43 43 43 42 42 42 42 42 41 41 42 42 43 43 44
23 23 22 22 21 19 15 22 32 34 35 37 40 43 45 46 46 43 40 37 35 34 34 35 35 36 37 38 39 41 42 42 43 44 44 44 44 44 44 45 45 45 45 45 45 45 45 46 47
21 19 19 25 24 22 17 20 28 31 32 32 34 38 41 42 41 39 36 34 33 33 34 34 35 36 37 38 40 41 42 43 44 45 46 46 47 47 47 48 49 49 48 49 48 48 48 49 50
18 21 22 22 23 22 20 24 27 28 30 31 33 33 33 32 33 33 33 33 33 33 34 35 36 37 38 39 41 42 43 44 46 46 48 49 50 51 51 52 53 52 52 52 52 52 51 52 53
18 20 21 24 24 24 23 27 30 30 32 32 31 29 28 29 30 31 32 32 33 34 34 35 37 38 40 41 42 44 45 46 48 49 50 51 52 53 54 55 55 55 55 55 54 54 54 55 55

GEFSSGP_500_meanwind_048.txt.gz
Wind_Speed
24 23 21 20 19 15 11 6 1 2 5 8 10 13 15 16 16 14 14 13 11 10 9 9 8 8 9 9 10 10 11 11 11 11 11 11 12 13 13 14 14 14 14 13 13 12 12 13 13
27 25 24 24 22 19 15 8 3 3 6 10 12 13 14 14 14 13 12 12 11 10 9 8 8 7 7 7 8 9 9 9 9 9 9 10 11 11 12 12 13 13 13 12 12 12 12 13 13
29 28 28 27 26 23 18 11 5 0 6 11 13 13 12 11 10 10 10 9 8 8 8 8 7 6 6 6 6 7 7 7 7 7 7 8 9 9 10 11 11 12 12 12 12 12 12 13 13
31 32 31 30 28 25 20 13 6 3 5 12 15 15 13 11 9 8 7 6 6 6 6 6 6 6 5 5 5 5 5 5 5 4 5 6 6 7 8 9 10 11 11 12 12 12 12 13 13
32 34 34 32 30 27 22 14 8 3 7 14 15 16 15 11 7 7 6 5 5 5 5 5 5 4 4 4 4 4 4 3 2 2 3 4 5 6 7 8 9 10 11 11 11 12 13 13 14
30 35 35 32 31 29 24 16 11 6 9 14 16 17 16 10 6 6 5 4 4 5 5 4 4 3 3 3 3 2 2 1 1 1 2 3 4 5 6 7 9 10 10 11 12 12 13 14 15
27 32 34 33 34 32 25 18 12 8 10 15 18 18 15 10 6 5 5 4 4 5 5 4 3 3 4 4 4 4 3 3 3 3 3 3 4 4 5 7 8 9 10 11 11 12 13 14 15
24 29 31 34 36 32 27 21 16 12 12 17 20 19 16 11 5 5 6 5 5 5 5 5 5 6 6 6 6 5 4 4 4 4 4 4 4 4 5 6 7 8 9 10 11 13 14 15 16
24 26 26 30 34 32 29 25 19 16 16 20 21 20 16 13 7 6 6 6 6 6 6 6 6 7 6 6 5 4 4 4 4 4 4 4 4 4 5 6 7 9 10 11 12 13 14 16 17
22 19 18 25 32 34 31 27 23 21 20 20 21 20 18 13 9 8 8 7 6 6 6 6 5 5 5 4 4 4 4 4 4 4 4 4 4 5 5 6 9 10 11 12 13 15 16 17 18
19 14 19 27 33 36 35 31 27 24 23 21 20 21 20 16 11 10 10 8 7 7 6 5 4 4 4 3 4 4 4 4 3 4 4 4 5 5 6 8 10 11 13 14 14 15 17 18 19
18 16 20 27 35 38 37 34 30 27 24 23 22 22 21 18 14 13 12 10 8 7 6 5 4 3 3 2 3 3 3 3 3 3 4 5 6 7 8 9 11 13 14 14 14 15 16 17 19
19 18 20 26 32 37 37 35 32 30 27 26 24 22 20 18 15 14 14 12 9 8 7 5 5 4 2 1 2 2 2 2 2 3 4 4 6 8 8 9 10 12 14 15 15 15 17 18 18
21 21 22 26 29 33 34 34 34 32 30 29 26 23 21 19 16 15 15 14 12 10 8 6 5 4 3 1 1 2 2 3 4 5 5 6 6 8 9 10 11 13 14 14 15 16 17 18 19
26 25 24 24 25 27 29 31 31 32 32 30 27 25 23 20 18 18 19 16 14 12 10 7 6 6 5 4 4 4 4 5 7 7 8 8 9 10 11 11 11 13 13 14 15 16 17 18 19
28 26 24 23 21 22 25 25 29 33 33 31 28 26 25 21 19 20 21 19 15 14 12 10 9 9 7 7 7 6 7 8 9 10 11 12 12 12 13 13 14 15 15 15 15 16 17 18 18
28 25 22 20 18 19 19 19 26 32 35 33 29 26 26 23 21 20 20 19 17 16 14 11 11 11 11 10 10 9 10 11 13 14 15 16 17 17 16 15 16 17 17 17 18 18 17 18 19
27 24 21 19 17 16 16 16 23 29 32 32 30 28 26 24 22 20 19 19 18 18 15 13 14 13 14 14 15 15 16 17 18 18 19 20 21 21 20 19 20 20 20 21 21 21 20 20 20
27 24 22 22 20 18 17 16 20 25 27 28 28 28 26 24 22 22 21 20 19 18 15 15 16 16 18 19 21 22 22 23 23 24 24 25 24 25 24 24 23 24 23 23 23 23 23 22 23
29 25 23 22 20 19 19 20 22 24 25 25 26 26 26 24 24 24 24 23 20 18 17 17 19 20 21 23 26 26 27 28 28 29 28 29 29 29 29 28 27 27 26 26 26 26 26 26 26
30 27 25 23 22 21 21 22 25 27 26 25 25 25 25 25 25 26 25 23 22 21 21 20 21 23 26 27 29 30 31 32 32 33 33 32 32 32 32 32 32 30 29 29 29 29 30 29 29
30 28 27 24 23 22 23 24 25 26 27 27 26 26 26 26 27 27 27 26 24 24 25 25 27 28 30 31 33 34 34 35 35 36 35 34 35 35 35 35 35 33 32 31 31 31 32 32 32
30 29 29 27 26 25 26 27 26 27 29 29 29 28 28 28 29 29 30 30 29 29 29 30 31 33 34 35 37 37 37 37 37 37 37 36 37 37 37 37 37 36 35 34 33 33 34 35 36
30 31 31 30 29 29 27 28 28 28 29 31 32 32 31 30 31 31 32 33 33 34 34 34 35 36 37 39 39 38 38 39 39 39 39 39 39 39 39 39 39 38 37 36 36 37 38 38 39
28 30 32 32 32 31 28 29 30 29 30 33 34 35 35 34 35 35 35 36 37 37 38 38 39 40 41 41 41 41 40 40 40 40 40 40 40 40 40 41 40 39 38 39 39 40 41 42 44
26 27 31 34 34 32 31 32 31 29 30 32 35 37 38 37 37 37 37 38 39 40 41 43 44 44 44 44 44 43 42 41 41 41 41 41 40 40 41 41 41 40 40 41 42 44 45 46 48
24 26 27 30 33 32 35 36 35 33 33 34 35 37 39 39 38 39 40 41 42 43 45 45 46 46 46 45 44 44 43 42 42 42 42 42 42 43 43 43 43 43 44 45 46 48 50 51 52
20 23 26 28 29 31 33 36 37 34 33 34 35 37 39 40 40 40 41 42 43 45 46 46 46 46 45 44 43 43 43 42 42 43 44 45 45 46 46 47 48 47 49 51 52 53 54 54 55
19 22 24 26 28 29 32 33 34 32 30 30 31 34 37 39 41 42 43 43 45 46 47 47 46 46 45 43 43 43 43 44 44 46 47 48 48 49 50 51 53 54 55 56 57 57 57 58 59
21 24 25 27 27 29 32 36 36 34 31 30 29 31 34 38 40 42 44 44 45 45 46 46 45 44 44 43 43 44 45 46 47 49 50 51 52 54 56 57 58 59 59 60 60 61 61 61 62

GEFSSGP_500_meanwind_054.txt.gz
Wind_Speed
24 25 25 23 21 19 16 14 13 11 10 7 5 4 3 4 5 6 7 7 7 8 8 8 9 10 8 7 6 6 5 5 5 5 4 5 5 6 6 7 7 8 9 9 10 10 10 10 11
26 27 27 26 24 21 18 16 15 13 10 8 5 3 3 4 6 7 8 8 8 8 8 8 9 8 7 6 5 5 4 4 4 4 4 4 5 5 5 6 6 7 8 8 9 9 10 10 10
27 28 30 29 27 23 19 18 17 14 11 9 6 4 2 5 7 9 9 9 8 7 7 8 7 7 6 5 4 4 4 3 3 3 3 3 4 4 4 5 5 6 7 8 8 9 9 9 9
27 29 31 31 29 25 22 20 19 17 13 11 7 4 3 5 7 9 9 9 7 6 6 7 7 6 6 5 4 4 3 3 2 2 2 2 2 3 3 4 5 5 6 7 8 8 9 9 9
26 30 31 31 30 28 25 23 21 19 16 13 9 5 3 4 6 8 9 7 5 4 5 6 6 5 5 5 4 4 4 3 2 2 1 0 1 2 3 3 4 5 6 7 8 9 9 9 9
26 28 30 28 29 30 27 25 24 22 19 16 12 8 4 3 5 7 7 5 3 4 5 5 6 6 6 6 6 5 4 4 3 3 2 1 1 2 2 3 3 5 6 7 9 9 9 9 9
27 26 26 26 29 33 30 29 26 25 22 18 13 10 6 3 5 6 5 4 3 3 4 5 6 7 7 7 7 7 6 6 5 4 2 1 0 1 1 2 3 5 6 8 9 10 10 9 9
28 25 23 23 28 33 33 32 30 28 24 20 15 12 8 4 4 5 5 3 3 3 5 6 7 8 9 9 9 8 7 6 5 4 3 2 1 1 1 3 4 6 7 9 10 11 11 10 10
29 25 21 20 25 33 37 35 33 31 27 22 18 14 9 5 4 4 3 3 3 4 5 7 8 9 10 10 10 9 8 7 6 5 4 3 2 2 3 4 5 7 8 9 10 11 11 11 11
30 24 18 19 25 34 40 39 36 33 29 24 20 16 11 6 4 4 3 3 4 5 7 8 9 9 10 10 10 9 9 8 7 6 4 3 3 3 4 5 6 7 8 9 10 11 11 11 11
32 26 21 22 28 37 43 43 41 37 32 27 23 18 13 8 5 5 4 3 5 6 7 9 9 9 10 10 10 10 9 8 7 6 5 4 4 4 5 5 6 7 9 10 10 11 11 11 11
33 28 25 25 29 37 45 46 44 41 34 30 27 22 16 10 8 6 5 5 5 7 8 9 10 10 10 10 10 9 9 9 8 7 6 5 5 6 7 7 8 9 9 10 11 11 11 11 11
34 30 28 27 29 35 44 47 45 42 37 32 29 24 18 13 10 9 7 7 7 8 10 10 11 11 11 10 10 10 9 9 8 8 7 7 8 8 8 9 10 10 10 11 11 11 12 13 13
34 32 29 28 28 33 42 46 46 41 38 34 30 24 20 16 13 11 8 8 9 8 10 11 11 12 12 11 11 11 10 10 9 9 10 10 10 10 10 11 11 12 11 12 12 13 13 14 15
34 32 29 27 27 31 39 45 45 41 38 34 31 27 23 19 16 12 10 10 11 10 10 12 12 13 13 13 13 12 12 11 11 12 12 12 13 13 13 13 13 14 14 13 14 14 15 16 17
33 31 28 26 26 30 35 42 42 41 39 36 33 29 25 22 18 15 12 11 12 12 12 14 14 14 14 14 15 14 13 14 14 14 14 15 15 16 17 17 16 17 17 17 16 17 17 18 19
32 30 27 26 26 29 33 38 41 42 40 38 34 31 27 24 20 16 14 13 13 15 16 15 16 17 17 17 16 15 15 15 16 17 18 19 20 20 21 21 20 20 21 20 20 20 20 20 22
31 30 27 26 26 28 30 35 40 42 41 39 36 33 29 25 21 18 16 15 15 16 19 18 19 19 19 19 18 17 18 18 19 20 21 22 23 24 25 25 25 25 25 25 24 24 24 23 24
31 29 27 26 26 27 29 32 38 41 41 40 38 35 31 27 24 21 17 17 17 18 18 18 20 20 20 20 19 20 21 23 23 23 24 24 24 26 27 28 27 27 26 27 28 28 27 27 27
29 28 26 26 27 26 27 29 34 39 41 40 39 36 33 29 26 22 20 19 19 19 20 19 20 21 22 23 23 23 27 27 28 28 28 28 28 30 30 30 30 30 29 28 29 30 30 30 30
28 27 26 26 27 26 26 27 30 33 35 37 36 35 33 31 28 25 23 21 20 17 19 21 21 22 23 24 25 25 27 29 30 31 30 30 31 32 32 33 32 31 30 30 31 31 31 32 32
27 27 27 27 27 26 25 25 27 29 29 31 31 32 32 31 28 26 24 23 22 22 21 21 23 24 25 25 28 29 30 31 32 31 31 32 31 32 31 32 32 32 33 33 34 34 35 35 36
25 28 28 29 28 26 24 25 26 26 26 27 26 27 28 29 28 28 26 24 24 24 24 24 24 25 27 28 30 31 33 34 34 32 32 32 31 31 32 33 33 34 34 35 35 36 36 37 37
26 29 30 30 29 27 26 26 27 27 27 26 26 25 26 27 27 28 27 26 26 26 26 26 26 27 30 32 34 35 35 35 36 35 33 33 34 34 34 35 35 37 37 37 37 38 38 39 39
27 29 29 30 30 29 27 28 29 29 28 28 28 28 28 29 29 29 29 28 28 28 29 30 31 32 34 36 37 37 36 38 37 36 37 36 36 37 37 38 38 39 39 39 40 40 41 41 42
27 29 29 30 30 29 28 29 29 29 29 30 31 32 32 32 32 32 32 32 32 33 33 34 36 37 38 39 40 39 40 40 40 40 40 39 39 40 40 40 41 41 41 42 42 43 43 44 45
26 28 29 29 29 30 30 30 30 31 30 31 32 33 33 33 34 34 35 35 36 36 37 37 39 41 41 42 42 42 42 43 43 43 42 42 41 42 42 42 43 44 44 45 45 47 48 49 50
25 26 27 28 28 28 30 31 31 32 33 33 33 34 34 34 35 36 37 38 39 40 41 42 43 43 44 44 45 45 46 46 45 44 44 43 44 44 44 46 46 46 47 48 50 51 52 53 54
24 25 27 28 29 28 29 31 32 32 33 34 35 36 37 38 38 38 38 39 40 41 42 43 44 45 46 47 46 46 46 46 46 46 46 46 47 47 47 48 49 50 52 53 53 55 56 57 58
23 24 25 26 27 29 31 32 33 33 34 35 36 38 38 39 40 39 39 39 39 39 40 42 42 43 43 43 44 45 45 46 46 46 47 49 49 50 50 51 52 53 55 55 57 58 59 60 61

GEFSSGP_500_meanwind_060.txt.gz
Wind_Speed
19 21 22 22 20 18 16 19 16 15 13 13 12 11 11 11 10 9 9 9 9 9 9 9 8 8 8 8 8 9 10 10 9 8 7 6 6 5 4 4 3 3 2 2 2 3 3 3 3
18 22 23 24 22 16 18 22 19 17 14 13 12 12 11 11 10 10 9 9 9 9 9 9 9 8 8 9 9 10 10 10 9 8 7 6 6 5 5 4 4 4 3 3 3 3 3 4 4
19 21 24 26 26 21 18 25 22 19 15 14 12 11 11 11 11 10 9 8 8 9 9 9 9 8 9 9 9 10 10 10 9 8 7 7 6 6 5 5 5 4 4 3 3 4 4 4 5
21 22 24 26 27 27 28 27 24 21 18 15 13 11 10 10 9 8 8 7 8 8 9 9 9 9 9 10 10 10 10 10 9 8 8 7 7 6 5 5 4 4 3 3 4 4 4 5 5
25 24 24 26 27 29 32 30 26 24 21 18 14 12 11 9 9 8 7 7 7 7 8 9 9 10 10 10 10 10 11 10 9 9 8 8 7 6 5 4 4 3 3 3 3 4 5 5 6
29 26 24 24 27 31 33 31 29 26 22 19 16 14 12 10 10 9 7 6 6 7 8 9 9 10 11 11 11 11 11 10 10 9 8 8 7 6 5 4 3 2 2 2 3 5 6 6 7
32 29 25 24 27 30 34 33 31 28 25 22 19 16 13 12 11 10 8 6 6 7 8 9 10 10 11 11 11 11 11 10 10 10 9 7 6 5 4 3 2 2 2 3 5 6 7 7 8
35 32 27 26 27 30 35 36 33 31 28 25 20 17 15 13 11 10 9 7 6 7 8 9 10 11 12 12 12 12 11 11 10 9 8 7 6 5 4 3 3 3 4 5 6 7 8 9 9
38 36 30 28 29 30 36 38 35 33 30 25 22 19 16 13 12 10 8 8 7 8 8 10 11 12 12 13 12 12 12 11 10 9 9 7 6 5 5 4 4 4 5 6 7 8 9 10 10
39 38 33 33 31 31 35 38 38 35 32 28 24 21 18 15 13 12 10 8 8 8 9 10 11 12 12 12 13 12 12 11 10 10 9 8 7 6 6 6 5 6 6 7 8 9 10 11 11
40 39 37 35 31 31 33 36 38 37 35 30 27 24 20 16 14 13 10 9 8 8 10 11 12 12 12 12 12 12 12 11 11 10 10 9 8 8 8 8 8 8 8 9 10 11 11 12 12
39 39 38 36 34 32 32 34 36 37 36 34 31 26 21 17 15 14 12 9 9 9 10 12 12 12 12 12 12 12 12 12 12 11 11 10 10 10 10 10 10 11 11 11 12 12 12 12 13
37 39 38 37 34 33 31 31 32 35 36 36 32 27 22 20 17 15 13 11 10 10 11 12 12 13 13 13 13 13 13 13 13 13 13 13 12 12 13 13 13 13 14 14 14 14 14 14 14
34 37 37 36 33 32 31 30 30 32 35 36 33 29 25 22 19 17 14 13 12 12 13 13 13 14 14 14 14 14 15 15 15 15 15 15 15 15 15 16 16 16 16 16 17 17 17 17 16
30 33 34 34 32 31 30 30 30 31 35 35 33 30 28 25 22 19 17 15 15 14 15 15 15 16 16 16 15 15 16 16 16 16 16 17 17 18 19 19 20 20 20 20 20 20 20 20 21
27 28 30 32 32 31 30 28 30 31 33 35 34 31 29 27 24 22 19 17 17 16 16 16 17 17 18 17 17 17 17 17 17 18 18 19 20 21 23 24 24 25 24 23 23 24 24 24 24
26 26 28 31 31 30 29 28 28 29 32 34 34 32 30 28 26 23 20 19 18 18 19 18 19 19 19 19 19 19 19 19 20 20 21 22 24 25 26 28 29 28 28 27 27 27 27 26 26
25 26 27 29 31 30 29 28 27 27 30 33 34 33 31 29 28 25 22 21 20 20 20 20 21 22 22 21 22 22 23 22 23 23 25 26 27 29 30 31 31 30 30 30 30 29 28 29 29
26 26 26 28 29 28 28 26 26 26 29 32 34 33 32 32 30 28 24 23 22 22 22 23 24 24 25 25 25 27 27 27 27 27 29 30 31 32 33 34 34 33 33 32 31 31 31 31 31
25 25 25 26 28 27 26 26 25 26 29 31 33 33 33 33 31 29 27 25 25 25 25 25 26 27 27 28 29 31 30 30 30 31 31 32 34 35 37 37 37 36 35 35 33 32 30 30 29
24 24 25 26 26 26 25 25 25 26 28 30 32 34 34 33 32 31 29 28 28 27 27 28 28 29 30 30 32 31 32 33 33 33 34 35 35 37 38 38 37 34 33 32 33 32 31 31 30
22 23 25 26 24 22 24 20 25 26 27 29 31 33 34 33 33 32 32 31 31 30 30 29 29 31 32 31 32 34 35 36 36 37 38 38 38 39 37 36 34 32 30 29 29 28 30 30 30
22 23 25 26 25 24 23 20 23 25 26 28 30 31 33 34 35 35 35 34 34 33 32 31 31 32 33 34 34 34 36 36 38 40 40 41 41 40 37 35 34 32 31 30 30 30 30 32 33
22 23 24 25 23 22 23 21 22 23 24 25 26 28 30 32 35 36 37 36 35 34 34 33 34 34 35 36 36 35 36 37 38 40 40 41 41 40 37 36 36 34 34 33 33 34 34 35 36
21 22 20 20 21 20 24 24 24 22 22 22 23 25 26 28 30 32 34 35 35 35 35 35 35 35 36 36 36 36 38 40 41 41 41 42 41 40 40 39 37 37 37 37 37 37 37 38 38
20 21 18 15 18 20 24 25 24 21 21 21 21 22 23 24 26 28 31 32 33 34 35 35 35 35 36 36 37 37 39 40 41 41 43 42 42 43 42 41 41 39 39 40 41 41 41 42 42
20 21 21 19 18 18 23 25 23 21 21 21 21 22 23 23 24 25 27 29 31 32 33 34 35 36 36 38 38 39 41 42 44 45 45 44 45 45 45 44 44 43 42 43 43 43 44 45 46
19 20 21 19 15 16 21 24 24 23 22 22 22 23 24 24 25 27 28 29 31 33 34 35 36 37 38 40 42 43 44 45 45 46 46 46 47 46 46 45 45 45 45 45 46 48 48 49 50
18 19 20 18 17 15 18 23 22 22 23 24 24 25 26 26 28 29 30 32 33 35 36 37 38 40 41 43 43 44 45 45 46 46 47 47 47 47 46 46 46 47 48 48 48 48 49 51 51
18 19 19 17 18 19 17 21 21 22 23 24 25 26 27 29 30 32 33 35 36 37 38 39 41 41 42 43 44 45 46 46 46 47 47 47 47 47 47 47 48 48 49 49 49 50 51 52 52

GEFSSGP_500_meanwind_066.txt.gz
Wind_Speed
14 16 17 17 16 14 9 14 13 10 6 9 13 14 15 18 16 15 12 11 11 13 13 13 13 13 14 14 13 13 12 12 12 12 11 11 11 11 11 10 9 9 8 7 7 6 6 6 6
15 17 19 20 18 16 14 19 17 12 10 13 16 16 19 20 17 16 15 15 14 15 15 15 15 15 15 15 15 14 13 13 12 12 12 12 11 10 10 9 9 8 7 6 6 5 5 5 5
17 19 22 23 21 19 19 23 20 10 9 11 16 18 21 20 16 16 17 17 16 16 16 16 16 16 16 16 16 15 14 13 13 12 12 11 10 10 9 9 8 7 6 5 5 5 4 5 5
22 22 23 24 22 18 21 25 17 9 8 10 14 18 20 19 17 16 16 17 15 15 16 16 16 17 17 17 16 15 14 13 12 12 11 10 10 9 8 8 7 6 5 5 5 4 4 4 5
27 25 25 23 21 19 22 24 18 13 8 8 14 19 20 18 17 15 16 16 15 14 16 15 16 17 17 16 15 14 14 13 12 11 11 10 9 9 8 7 6 5 5 4 4 4 4 4 5
31 29 27 23 21 20 23 26 19 14 7 7 13 20 24 21 17 16 16 16 15 13 15 15 15 16 16 16 15 14 13 12 11 11 11 10 9 8 8 7 6 5 5 4 4 5 5 5 6
34 32 30 25 22 21 22 27 25 19 14 14 17 22 25 21 16 16 16 15 14 12 14 13 14 15 15 16 15 14 13 12 12 11 11 10 9 8 8 7 6 6 5 5 5 5 5 6 6
35 36 34 30 26 23 22 28 28 23 19 20 21 25 26 19 15 15 16 15 13 11 12 12 13 14 15 15 15 14 13 12 12 11 11 10 9 8 8 7 7 7 7 6 6 6 6 7 7
36 39 37 32 28 23 24 30 29 26 23 20 23 28 29 21 15 15 16 15 13 11 12 12 13 14 15 15 15 14 13 13 12 12 11 10 10 9 8 8 8 8 7 7 7 8 8 8 9
36 39 37 34 30 26 25 30 30 27 24 20 21 27 28 23 18 17 16 15 13 12 12 12 13 14 14 15 15 14 14 13 13 12 11 11 10 9 9 9 8 8 8 8 8 9 9 10 10
34 36 36 36 34 31 29 28 29 23 23 21 21 25 26 23 20 19 17 16 13 13 13 13 13 14 14 14 14 14 14 14 13 12 12 11 11 10 10 10 10 10 10 10 10 11 11 11 11
31 34 36 39 38 37 36 34 29 23 22 19 20 25 26 22 20 18 17 16 15 14 14 13 13 13 14 14 15 15 14 14 13 13 13 12 12 11 12 12 12 12 12 12 13 14 14 15 15
28 31 35 39 42 44 42 39 34 29 26 26 26 26 27 23 20 20 19 18 16 15 14 13 13 13 13 14 15 15 15 14 13 13 13 13 13 13 13 13 14 14 15 15 17 17 18 19 19
26 29 33 36 40 43 43 40 37 33 31 29 28 29 28 26 23 23 23 20 18 16 14 13 13 13 14 15 15 16 15 15 14 14 15 15 15 15 15 16 16 17 17 18 19 20 21 22 22
28 30 31 33 36 38 40 39 36 34 33 31 29 30 28 27 27 27 25 21 19 17 15 14 15 15 15 16 16 16 16 16 15 16 17 17 17 17 18 18 18 19 20 21 23 24 24 25 25
25 26 27 26 28 31 35 36 32 31 32 31 29 29 28 28 29 29 27 24 21 19 16 16 17 16 17 17 17 17 17 17 17 18 18 19 19 19 20 21 21 22 23 24 25 26 27 28 29
18 18 18 16 19 24 29 29 25 28 30 30 29 28 27 28 30 30 29 27 23 20 18 18 18 17 18 18 18 18 18 19 19 20 21 22 22 22 23 24 25 26 27 28 29 30 31 31 31
9 11 11 12 17 21 24 26 25 25 26 28 27 27 27 29 30 32 30 27 24 20 19 19 19 19 19 18 19 20 20 21 22 22 23 24 24 25 27 28 28 29 29 31 31 32 32 32 34
13 13 14 15 18 20 20 22 23 23 24 25 25 26 29 31 31 31 30 26 24 22 21 20 19 19 19 19 20 22 23 23 25 25 26 27 28 29 29 31 30 30 32 32 31 32 34 34 36
18 16 15 16 18 19 19 20 23 24 25 25 26 29 31 34 33 36 33 29 27 25 23 22 20 20 20 21 22 23 25 26 27 28 29 29 30 31 32 32 33 33 34 34 34 33 34 35 36
21 20 16 15 16 18 20 22 25 27 28 30 31 32 33 34 32 30 29 27 28 26 25 24 22 22 23 23 25 26 27 28 30 31 32 32 33 33 34 35 35 36 36 34 34 34 34 33 34
18 18 17 16 16 15 17 21 25 28 30 31 32 32 33 32 30 29 28 27 27 26 25 26 25 24 25 26 27 29 30 31 32 34 34 35 35 36 36 36 37 36 36 35 33 34 34 33 32
15 14 17 18 17 17 17 20 25 28 30 32 32 32 31 30 31 28 26 26 27 27 27 26 27 27 27 29 31 32 32 33 34 36 36 37 37 37 37 36 35 34 33 32 31 32 33 33 33
16 15 16 18 18 21 20 21 27 30 30 29 30 30 30 29 29 28 27 27 27 27 27 28 29 30 30 32 33 33 34 36 37 37 38 38 37 37 36 34 34 34 34 33 34 34 34 35 36
19 17 15 15 19 21 19 23 32 31 31 28 26 28 28 29 29 28 28 28 28 29 29 30 31 32 34 35 36 37 38 38 38 38 37 37 37 37 35 35 35 36 37 37 37 38 37 38 39
17 19 18 14 15 17 19 29 34 32 27 23 22 25 27 28 29 29 30 30 30 31 32 33 33 34 36 37 39 39 40 39 38 38 39 39 39 38 38 38 38 39 38 39 39 39 40 40 41
16 19 18 18 19 19 25 32 33 31 28 25 23 24 26 26 27 27 29 30 31 33 34 35 36 37 37 38 39 40 40 40 40 39 39 39 40 41 41 42 42 41 41 41 41 42 43 44 45
17 15 18 19 17 18 24 30 32 26 26 26 25 24 25 25 26 26 27 27 28 30 31 33 34 34 35 37 38 39 40 41 41 41 41 42 43 43 44 44 43 43 43 43 44 45 45 46 47
18 19 19 18 18 17 19 23 28 28 25 24 25 25 26 25 25 26 25 26 27 27 28 29 31 33 35 36 38 39 40 40 42 43 43 44 45 45 45 45 45 45 45 46 46 47 46 47 48
17 18 18 19 18 16 18 21 19 21 22 22 22 23 24 25 25 25 26 26 27 28 29 31 32 34 36 38 39 40 41 43 43 45 46 46 47 47 47 46 46 47 47 47 47 47 47 49 50

GEFSSGP_500_meanwind_072.txt.gz
Wind_Speed
18 18 19 20 20 19 18 21 20 15 13 14 15 15 14 11 6 6 8 8 6 6 6 6 6 8 10 11 12 12 13 13 12 12 12 11 11 11 11 11 11 10 10 9 8 7 7 6 5
21 21 22 22 22 20 20 23 21 16 14 15 15 14 12 8 4 5 8 9 8 8 7 6 7 9 11 13 13 14 14 14 14 13 12 12 12 11 11 11 10 10 9 9 7 6 6 5 5
25 24 24 24 22 20 22 24 23 17 15 15 16 14 11 7 4 4 8 10 8 8 7 7 8 10 12 13 14 14 15 15 14 13 12 12 12 11 11 10 10 9 9 8 7 6 5 5 5
29 28 27 25 21 20 24 26 25 19 17 17 18 15 12 6 3 5 8 10 8 7 7 8 9 10 12 13 14 15 15 15 14 13 13 12 12 11 10 10 9 8 8 7 6 6 5 4 4
31 31 30 25 20 21 25 27 26 21 18 18 19 16 12 7 4 5 8 10 9 8 8 9 10 11 12 13 14 14 14 14 14 13 13 12 11 10 10 9 8 7 7 6 6 5 5 4 5
32 34 32 27 23 24 27 28 28 23 20 20 21 17 14 9 5 6 9 11 9 9 9 10 11 12 12 13 13 14 14 14 14 13 13 12 11 10 9 8 7 7 6 5 5 5 5 5 5
32 35 34 30 27 26 28 29 29 25 23 23 24 22 16 11 7 5 7 10 10 10 10 11 12 12 13 13 13 14 14 15 14 14 13 12 11 10 9 8 7 6 6 5 5 5 5 5 5
33 35 35 33 30 28 30 32 30 28 26 26 25 24 20 13 10 6 6 9 11 11 10 10 11 11 12 13 13 14 15 15 15 14 13 12 11 10 10 8 7 7 6 6 6 6 5 6 6
33 35 33 32 32 30 33 34 32 31 28 26 26 24 23 18 12 7 7 9 11 11 10 9 10 11 12 13 13 14 14 15 15 14 13 12 12 11 10 9 8 7 7 7 6 7 7 7 7
33 33 30 32 35 35 35 35 34 33 31 27 25 25 24 18 12 8 7 9 12 12 10 10 10 11 12 13 13 14 15 15 15 14 13 13 12 11 10 9 9 8 8 8 8 8 8 8 9
32 32 31 33 36 37 38 37 36 35 33 29 26 24 24 19 15 11 9 11 12 12 11 10 10 11 12 13 14 14 15 15 15 15 14 13 13 12 11 10 9 9 9 9 9 10 10 10 11
31 31 33 33 36 39 40 39 38 36 33 31 27 24 21 19 16 10 9 11 12 12 12 12 11 11 12 13 14 15 15 16 15 15 15 14 14 12 12 11 10 10 10 10 11 11 12 13 14
30 31 33 34 36 39 41 42 40 38 35 33 29 24 21 17 14 12 12 13 13 13 13 13 13 13 13 14 14 15 16 16 15 15 15 15 15 14 13 12 12 12 12 12 12 13 14 14 16
28 30 32 34 36 39 42 43 43 40 38 35 30 25 22 18 17 16 14 14 14 15 15 14 14 15 15 15 15 16 16 16 16 16 16 16 15 15 14 14 14 14 14 14 14 15 16 17 18
26 28 29 31 33 36 40 44 44 40 39 37 34 29 25 23 21 18 17 16 17 17 18 17 16 16 16 16 16 16 16 17 17 18 17 17 17 17 16 16 16 16 16 17 17 18 18 19 21
23 24 23 23 26 29 35 40 40 40 39 39 37 34 31 28 26 24 21 20 20 20 21 21 19 19 19 17 17 17 17 17 17 17 17 17 18 19 18 17 17 18 19 19 19 20 20 20 22
20 20 18 18 19 22 28 32 33 36 38 39 38 36 34 33 31 29 27 24 24 23 22 21 20 20 21 20 18 17 17 17 18 18 18 19 19 19 18 18 18 19 19 20 20 21 22 22 23
15 16 17 17 16 18 21 23 25 32 36 38 39 38 36 35 33 31 30 28 28 26 24 23 22 22 21 21 20 19 19 19 19 19 19 20 20 19 19 18 19 19 20 20 21 22 22 23 24
15 16 17 17 16 16 16 18 22 27 32 36 37 37 37 36 35 34 31 29 28 28 26 24 24 24 24 23 21 21 20 20 20 20 20 19 19 18 19 18 19 19 21 22 23 24 24 25 26
17 17 16 16 15 14 14 15 20 25 30 33 35 36 36 36 35 34 32 31 29 29 29 26 25 26 25 25 23 23 22 20 20 19 18 18 19 19 19 20 20 21 23 24 25 25 25 26 26
17 17 17 16 16 16 15 17 20 23 27 29 31 33 34 34 34 33 31 31 32 31 28 27 25 25 26 26 24 23 22 21 20 20 19 20 20 20 21 22 21 22 23 24 24 26 27 26 25
18 17 16 17 17 20 19 19 22 23 25 27 29 30 31 31 32 32 32 32 33 32 30 29 27 26 26 27 26 25 24 22 20 20 21 22 23 23 23 23 22 23 23 23 24 24 24 25 26
17 17 18 18 18 20 21 21 22 24 24 25 27 28 28 29 30 31 31 32 32 32 32 29 28 27 28 27 26 26 25 24 21 20 22 23 24 24 23 23 23 23 23 24 24 24 25 26 28
18 18 20 20 20 20 19 22 23 22 23 23 24 26 27 28 30 32 32 34 33 31 32 31 28 25 25 26 25 24 23 21 20 20 22 23 23 23 24 25 24 24 24 24 25 26 26 28 30
19 20 20 21 21 20 19 22 23 22 23 23 24 25 27 28 28 30 31 32 32 32 30 29 26 24 24 24 24 23 22 21 21 21 22 23 23 24 25 26 26 26 26 26 26 28 29 31 32
19 21 21 20 20 19 22 24 25 24 24 23 22 24 27 27 28 28 28 29 30 30 28 28 27 24 23 24 24 24 24 24 24 24 24 25 26 27 26 27 28 29 29 30 31 32 33 34 35
20 20 20 20 19 18 21 23 25 26 26 24 23 23 24 26 26 26 27 28 29 29 28 27 26 26 25 25 25 25 26 25 26 27 27 28 29 29 29 30 31 32 33 34 34 35 36 37 38
19 19 19 19 19 19 20 21 22 24 25 26 25 25 24 25 26 27 26 27 28 28 28 27 26 26 26 25 25 25 26 27 28 29 30 31 31 31 32 33 34 36 37 37 38 39 39 40 41
17 19 19 20 19 19 20 21 22 23 23 24 25 25 26 26 25 25 25 26 26 26 26 25 25 26 26 26 27 27 28 29 30 31 32 33 34 35 36 37 38 39 39 39 40 41 41 41 42
17 17 18 19 18 18 19 20 19 20 20 19 19 22 25 26 25 24 24 24 25 25 25 25 26 26 27 27 28 29 30 30 31 33 34 35 37 38 39 40 41 40 40 40 41 41 41 42 42

GEFSSGP_500_meanwind_078.txt.gz
Wind_Speed
22 21 20 19 19 19 19 21 22 22 22 20 18 16 15 13 11 10 10 10 9 7 6 7 7 8 8 8 8 7 6 6 7 7 7 7 7 8 8 8 9 8 8 8 8 8 7 6 6
26 24 23 22 20 18 18 21 23 24 23 22 20 18 15 13 11 10 10 10 9 8 7 7 8 9 9 9 9 9 8 8 8 8 8 8 9 8 8 8 8 8 8 7 7 7 6 5 5
28 27 27 25 22 18 18 22 24 25 24 23 22 19 16 13 12 11 11 11 11 10 9 9 10 10 10 10 10 10 10 10 9 9 9 9 9 9 8 8 8 7 7 6 6 5 5 4 4
30 31 30 28 23 19 21 23 25 26 25 24 23 21 17 15 12 12 12 13 13 12 10 10 11 11 11 11 11 11 11 11 10 10 10 10 10 10 9 8 7 6 6 5 5 4 4 3 3
30 32 32 29 24 22 23 25 27 27 27 26 25 23 20 17 15 14 13 14 14 13 12 12 12 12 11 10 11 11 12 12 11 11 11 11 11 10 9 8 7 6 5 5 5 4 4 3 4
31 32 33 31 27 25 26 28 29 29 29 28 27 25 22 20 18 16 15 15 15 15 14 13 13 12 11 11 11 11 12 12 12 12 12 11 11 10 9 8 7 6 5 5 5 4 4 4 4
29 31 32 31 30 29 29 31 32 31 31 30 29 26 23 20 18 17 16 16 16 15 14 14 13 13 12 12 11 11 12 12 13 12 12 11 11 10 9 8 8 7 6 6 5 5 4 4 5
29 30 31 31 30 30 31 34 34 34 33 32 30 27 25 23 21 19 17 17 17 14 15 14 13 12 12 12 12 12 12 13 13 13 12 12 11 11 10 9 9 8 8 7 7 6 5 5 5
29 30 29 29 31 31 33 36 37 37 36 34 32 29 26 23 21 17 17 16 16 14 14 14 13 12 12 12 12 12 13 13 13 13 13 13 12 12 11 11 10 10 9 9 8 7 7 6 6
28 29 29 29 31 32 35 37 38 39 38 36 33 30 27 24 20 18 16 15 13 12 12 13 13 12 12 11 12 12 13 14 14 14 14 14 13 13 13 12 12 11 11 11 10 9 8 8 8
27 27 28 30 31 33 35 38 40 41 39 37 34 31 28 24 21 19 16 15 13 13 13 13 13 12 12 12 12 13 14 14 14 15 15 15 15 14 14 14 14 13 13 13 12 12 11 10 10
26 26 27 29 31 33 34 37 40 41 39 38 36 32 28 22 19 16 14 13 14 14 14 13 12 12 13 13 13 13 14 14 15 16 16 16 16 16 16 16 15 15 15 15 14 13 13 12 12
26 26 27 27 29 31 33 35 38 40 39 39 37 34 29 23 17 14 14 14 14 15 14 14 12 13 14 14 14 14 14 15 16 17 18 18 18 18 18 18 17 17 17 16 16 15 15 15 14
27 26 26 25 26 28 30 33 36 36 38 40 38 34 30 25 20 16 15 15 15 16 16 16 14 13 14 14 14 15 16 17 18 18 19 19 19 19 20 19 20 19 19 18 17 17 17 17 17
27 26 24 24 26 27 29 31 32 33 37 38 39 36 32 27 23 19 18 17 17 18 17 17 16 15 16 15 15 16 18 18 19 21 21 21 21 22 22 22 21 21 21 20 20 19 19 19 18
26 25 23 23 25 26 29 29 29 33 36 37 38 37 34 30 27 24 22 19 20 19 19 18 18 18 17 18 18 17 18 20 21 21 22 23 23 23 23 23 22 22 22 23 22 21 21 21 20
24 24 22 23 24 26 29 29 29 32 35 37 38 38 37 33 30 27 25 23 22 21 21 21 21 22 21 21 21 20 20 21 22 22 23 24 24 24 24 24 24 23 23 24 23 23 22 22 21
23 22 22 22 24 27 28 29 28 30 33 35 36 37 38 36 33 30 29 26 25 24 23 24 23 24 24 23 24 23 22 23 23 23 24 25 26 25 25 25 25 26 25 25 24 24 24 24 23
21 21 20 21 24 26 28 27 26 27 30 33 35 36 37 36 35 33 31 30 29 27 26 26 26 26 27 27 25 23 24 25 25 25 25 26 27 27 27 26 26 27 27 26 25 26 26 26 26
20 20 19 21 23 25 26 25 23 24 26 29 31 34 35 35 35 34 33 31 30 29 27 26 26 27 27 28 26 26 25 26 26 26 27 28 28 29 28 28 27 26 27 26 26 27 27 27 28
19 20 20 21 22 23 24 23 21 22 23 25 27 30 32 34 35 34 33 32 31 30 28 27 27 27 27 27 28 27 26 27 28 27 28 28 28 28 27 26 25 24 25 25 24 25 26 27 27
19 20 20 21 22 22 22 21 20 20 21 22 24 25 28 31 33 34 33 33 32 30 28 27 26 25 27 28 28 26 26 26 27 28 29 27 27 27 26 24 24 24 23 23 24 25 25 26 27
19 20 21 21 22 22 22 22 20 19 20 20 21 22 24 27 30 31 31 31 31 30 28 27 27 27 27 27 26 27 26 25 26 28 29 29 28 27 26 24 23 23 23 23 24 24 24 25 27
19 19 20 21 22 22 21 22 21 19 19 19 20 21 22 23 26 28 29 28 29 29 28 28 27 27 26 25 25 25 23 22 25 27 26 27 27 26 25 24 23 22 23 23 23 24 25 26 27
18 18 19 20 21 21 21 22 21 20 18 18 20 20 20 21 23 25 26 27 27 26 26 26 25 24 23 23 24 23 21 20 22 22 21 23 25 25 23 22 22 23 24 24 23 24 26 28 29
17 18 19 19 20 21 23 21 20 19 18 17 18 18 19 20 20 21 23 24 24 24 25 25 23 22 22 22 22 22 20 20 19 20 20 20 21 22 21 22 22 23 23 24 25 27 28 29 31
16 17 19 20 20 20 21 21 20 19 18 18 18 18 19 20 20 20 21 23 23 23 23 23 22 22 22 22 21 21 21 19 18 18 18 18 19 19 21 22 23 24 25 26 28 29 30 32 34
14 16 17 18 19 20 20 20 20 20 21 21 21 21 20 21 21 20 21 21 22 21 21 21 21 22 21 21 21 21 20 19 18 18 18 19 20 21 22 22 23 25 27 28 30 31 33 35 36
13 14 15 17 18 19 19 19 19 20 21 21 20 19 19 20 22 21 22 22 21 22 22 22 22 21 21 21 22 22 21 21 21 21 21 21 22 23 24 25 26 28 30 32 33 34 36 37 38
11 12 13 16 16 17 18 18 17 18 19 19 19 18 18 18 20 21 22 22 22 21 22 22 22 22 22 22 22 23 22 22 22 22 23 23 24 25 27 28 30 32 33 34 35 36 36 37 38

GEFSSGP_500_meanwind_084.txt.gz
Wind_Speed
20 19 17 16 15 14 14 18 19 20 19 19 18 17 15 14 13 14 14 15 17 18 17 17 17 16 14 13 13 13 13 13 11 10 9 7 6 5 4 4 3 3 3 3 3 2 2 2 1
22 21 20 18 17 15 15 19 20 21 20 19 19 18 17 16 16 15 15 16 18 19 19 18 18 17 16 15 15 15 15 14 13 11 10 9 7 6 5 5 5 4 4 4 4 3 3 3 2
24 24 23 21 19 16 17 21 22 22 20 20 19 19 18 18 17 16 15 16 18 20 19 19 19 18 17 17 16 16 16 15 14 13 11 10 9 8 7 6 6 6 5 5 5 4 4 3 3
25 25 25 24 21 19 22 24 23 23 22 20 19 18 18 19 18 17 16 16 17 19 19 19 20 19 18 18 18 17 17 17 16 14 13 11 10 9 8 8 7 7 7 6 6 6 5 4 4
25 26 26 25 23 23 24 26 26 24 24 22 20 18 19 18 18 18 18 17 18 19 20 20 20 20 19 19 19 18 18 18 17 16 14 13 11 10 10 9 9 8 8 8 7 7 6 5 5
25 26 26 25 25 25 25 27 28 27 26 24 21 19 19 19 18 18 18 18 18 19 19 21 20 20 20 19 19 19 18 18 17 17 15 14 13 12 11 10 10 10 9 9 8 8 7 6 6
24 25 25 26 26 26 27 29 30 29 29 28 25 21 20 19 19 18 17 18 17 18 20 20 21 21 21 21 20 19 19 18 18 17 16 15 14 13 12 12 11 11 10 10 9 9 8 7 7
23 24 25 26 27 27 29 30 31 31 31 30 26 23 22 19 19 19 19 19 17 18 19 20 21 21 22 22 21 20 20 19 18 18 17 16 15 15 14 13 13 12 12 11 11 10 9 9 8
22 23 24 26 27 28 29 30 31 31 31 31 28 26 24 21 19 19 19 20 20 19 19 20 20 21 22 23 22 22 21 20 19 18 18 17 16 16 15 15 14 14 14 13 12 12 11 11 10
21 22 24 26 27 27 28 29 31 31 31 31 30 28 26 23 21 20 20 19 19 20 19 19 21 23 24 24 24 23 23 22 20 19 19 18 17 17 17 16 16 15 15 14 14 14 13 13 12
21 22 24 25 25 26 27 29 30 30 31 31 31 30 28 25 23 21 21 20 20 20 19 20 21 22 24 25 25 24 23 23 22 21 19 19 19 19 18 17 17 17 16 16 16 16 15 15 14
22 22 23 24 25 26 27 28 29 30 30 32 32 31 28 25 24 23 22 21 21 20 19 20 20 21 23 25 25 24 24 23 23 22 21 20 20 20 20 19 18 18 17 17 17 17 17 16 16
22 23 23 24 25 26 26 27 28 28 29 31 31 30 28 27 26 24 24 22 21 22 22 22 21 20 22 23 24 23 23 23 23 24 23 22 21 21 21 21 20 20 19 19 19 19 19 18 18
22 23 24 25 26 26 26 27 27 28 29 30 30 30 29 28 27 26 25 24 23 23 23 22 21 21 21 22 22 23 24 24 24 24 23 23 23 22 22 22 22 22 21 21 21 21 21 21 21
22 23 23 25 25 26 25 25 27 27 27 28 29 29 30 30 29 28 27 26 25 25 24 23 22 21 21 22 21 22 23 24 24 24 25 24 24 24 24 24 24 24 23 23 23 23 22 22 23
22 21 22 25 24 25 24 23 25 25 26 27 29 30 30 31 31 30 30 29 27 27 26 24 23 23 22 22 22 23 23 24 25 25 25 24 25 25 25 26 26 25 25 25 25 25 24 24 24
21 20 20 24 24 23 23 22 24 23 24 26 28 29 31 32 32 32 32 31 29 28 29 27 25 24 23 23 24 25 24 24 25 26 25 25 26 27 27 28 28 27 27 27 27 26 26 26 26
20 19 20 21 23 22 22 23 23 23 23 24 26 29 31 33 34 34 33 32 31 30 29 28 27 26 25 25 24 24 23 25 25 27 26 26 27 27 28 28 28 29 29 28 29 28 28 28 28
19 19 19 21 22 21 22 22 22 22 23 24 25 28 31 33 34 35 34 34 33 32 31 30 28 27 26 25 25 23 23 25 25 26 27 27 27 28 29 29 29 30 31 31 30 31 30 30 30
18 18 18 20 21 21 22 22 21 21 21 21 23 25 29 32 34 35 36 36 36 35 33 31 29 28 27 26 25 24 24 25 25 26 27 28 30 31 30 30 30 30 32 32 32 32 31 30 30
18 18 19 19 20 21 21 20 20 19 19 19 20 23 26 30 33 35 36 36 37 36 35 34 33 31 29 28 27 25 26 26 24 25 26 27 29 31 32 32 32 32 32 33 33 32 32 32 31
17 19 19 19 18 16 19 17 18 18 18 18 19 20 23 27 30 34 36 37 37 37 37 36 34 33 31 29 28 27 26 26 25 25 25 24 26 29 31 32 33 33 33 32 32 32 32 32 33
18 19 19 19 19 18 17 17 17 18 16 16 17 18 19 22 26 30 33 35 36 37 37 36 34 33 30 29 28 28 26 26 25 26 25 24 26 29 31 31 32 32 33 33 33 33 32 33 33
18 18 18 18 16 17 15 16 17 16 15 15 15 16 17 19 22 25 29 32 34 35 35 35 33 33 31 30 29 28 26 25 25 24 23 23 24 26 28 30 31 32 33 34 34 32 32 33 33
16 15 14 14 14 14 15 16 17 16 14 14 15 16 16 17 19 21 24 29 31 32 32 33 32 31 30 29 27 26 25 25 24 22 21 21 22 24 26 28 30 30 31 32 32 32 32 31 32
14 13 13 14 12 13 16 16 16 15 15 14 14 14 16 18 18 19 21 24 28 30 31 31 31 31 30 29 27 26 25 24 22 21 21 21 21 22 24 26 27 29 30 30 30 30 30 31 32
14 13 14 15 14 14 15 17 16 14 14 15 14 14 15 17 18 19 21 22 24 27 29 30 30 30 29 28 27 26 25 23 22 21 21 21 21 22 23 25 25 26 27 28 28 29 30 32 33
13 13 14 13 14 14 14 16 15 14 14 14 14 14 15 17 18 19 20 22 23 25 26 28 29 29 28 28 27 26 25 24 22 20 20 20 19 20 21 24 24 24 26 26 26 27 29 31 33
12 12 12 12 13 13 13 13 13 13 14 15 15 15 16 17 18 19 20 22 22 24 24 26 27 27 26 26 25 24 22 21 21 21 20 19 19 19 20 22 22 23 24 26 27 29 30 32 33
10 10 11 12 13 13 13 15 14 14 14 15 15 15 15 16 17 18 20 22 23 24 25 25 25 25 25 25 25 24 23 22 22 22 21 20 21 21 21 22 23 25 26 28 30 31 32 34 36

GEFSSGP_500_meanwind_090.txt.gz
Wind_Speed
17 16 16 15 14 11 5 2 9 14 20 22 19 18 19 20 21 19 17 15 13 14 15 16 17 16 16 15 15 15 14 15 15 15 14 14 13 12 12 10 9 8 7 7 6 5 4 3 3
18 18 18 17 16 12 4 5 13 17 23 25 22 18 18 21 21 19 19 17 16 16 17 17 17 17 17 16 16 16 16 16 16 16 15 15 14 13 13 12 10 9 8 8 7 6 5 4 4
19 19 19 19 17 12 8 10 15 17 23 25 23 20 19 21 20 19 19 19 18 18 19 20 20 20 19 19 18 18 18 17 17 17 16 16 15 15 14 13 12 10 10 9 8 7 6 5 5
19 19 20 20 17 12 11 13 17 18 21 22 22 21 19 20 21 20 20 20 20 18 19 20 21 21 21 21 21 20 19 18 18 18 18 17 17 16 15 14 13 12 11 10 9 8 6 6 6
19 19 19 19 16 12 13 16 21 22 21 22 22 21 22 21 20 19 19 21 20 18 18 19 21 22 23 22 21 21 21 20 19 20 19 19 18 18 17 16 14 13 12 11 10 8 8 7 7
18 18 18 16 12 10 13 18 23 24 22 21 21 21 24 23 20 19 19 20 21 20 19 20 20 23 23 23 23 22 21 21 20 21 20 20 20 19 19 18 16 14 13 12 11 10 9 8 8
17 18 17 14 11 12 15 21 24 24 22 20 20 21 25 26 24 20 19 20 21 21 20 20 20 21 23 23 23 23 22 22 22 22 22 21 21 20 20 19 17 16 14 13 12 11 10 10 9
17 17 16 14 13 14 18 24 27 28 24 21 22 23 27 29 25 21 19 21 22 21 20 20 19 20 21 22 23 23 23 23 22 22 22 22 21 21 21 20 18 17 16 15 14 13 12 11 11
16 16 14 10 11 15 19 25 26 27 25 23 24 25 29 31 27 23 22 22 23 22 21 21 21 21 22 23 24 24 23 24 24 23 23 22 22 22 22 21 20 18 17 16 15 14 13 12 12
15 15 12 11 19 23 23 24 24 24 24 23 23 25 30 31 28 25 24 23 24 23 22 23 24 24 24 24 25 26 25 25 25 24 24 24 23 23 23 22 21 19 19 18 16 16 15 14 14
15 16 15 17 23 26 26 24 24 24 24 22 20 22 28 31 29 27 27 26 26 25 24 23 24 25 25 25 25 24 24 26 27 26 26 25 24 23 23 22 21 20 20 19 18 17 17 16 16
16 16 18 21 24 24 24 24 24 24 24 23 23 25 30 31 30 29 29 29 28 27 24 23 23 24 25 25 25 24 25 26 26 26 26 26 25 24 24 23 22 21 21 20 19 19 18 18 18
17 17 19 21 22 22 23 23 23 24 23 24 26 28 31 31 29 30 30 31 30 28 25 25 25 25 25 25 25 26 26 27 26 27 27 26 26 26 25 23 22 22 22 21 21 20 19 19 19
17 18 18 19 21 21 22 22 23 22 23 25 26 28 30 30 31 30 31 30 29 28 27 26 25 25 25 24 24 25 27 26 27 26 27 26 25 26 27 24 23 23 22 22 22 22 21 21 21
16 16 17 18 20 20 21 20 20 21 23 25 24 26 28 30 29 32 32 30 30 29 28 27 26 26 27 25 26 26 26 26 27 26 27 27 26 26 25 25 24 24 24 24 23 23 23 23 22
13 14 13 13 16 18 20 18 15 19 22 23 23 24 25 28 30 32 32 31 30 30 28 27 27 28 26 26 25 26 25 25 26 25 25 25 26 25 25 25 24 25 25 25 25 25 24 24 24
9 11 8 9 17 21 21 16 14 20 22 23 23 24 24 28 31 33 33 33 32 31 29 30 29 28 27 26 25 26 25 24 23 22 22 23 25 25 25 26 25 26 26 26 26 26 26 26 26
7 11 11 13 18 22 21 17 17 19 21 24 25 24 26 29 32 33 33 33 32 32 32 32 30 29 29 27 27 25 25 23 23 23 23 23 24 24 26 25 26 26 26 27 27 28 28 28 28
15 16 18 18 18 22 22 20 21 22 23 25 27 26 27 30 32 33 34 33 34 33 33 33 32 31 29 28 27 26 24 22 22 22 22 23 24 25 25 25 27 27 27 29 30 30 30 30 29
16 16 16 16 17 22 23 21 21 23 25 27 28 28 28 30 33 33 34 34 35 35 35 34 34 31 30 28 27 25 23 21 21 20 20 21 21 23 24 26 27 28 28 29 30 30 31 31 31
14 14 15 16 19 22 22 22 22 25 27 28 28 28 27 30 32 34 34 35 36 36 35 36 35 33 31 29 27 26 24 22 21 21 22 21 21 23 26 26 27 29 29 30 31 32 31 32 32
14 13 17 18 20 21 20 24 24 27 29 30 29 28 27 29 30 32 34 35 37 38 37 37 36 35 33 31 28 26 25 24 23 23 23 22 23 23 24 25 26 27 28 29 30 31 32 32 33
15 15 18 19 20 21 21 25 26 27 29 30 26 24 24 25 27 29 32 34 35 37 37 38 37 36 35 32 29 28 26 25 24 24 24 24 25 25 25 26 26 27 29 29 30 32 33 33 34
16 16 17 16 18 21 21 24 26 28 29 28 26 21 20 21 23 25 28 31 32 34 35 37 36 36 35 33 31 31 29 27 26 26 26 26 26 26 27 28 27 27 29 31 32 33 35 35 35
16 16 16 16 19 21 22 24 26 26 25 26 22 19 19 20 22 23 25 27 29 31 32 34 34 34 34 32 32 32 30 28 27 26 26 26 26 27 28 29 29 29 30 30 32 33 34 34 34
15 15 16 19 20 22 23 24 23 23 21 17 16 17 18 20 20 22 23 25 27 28 30 31 32 32 32 31 31 31 29 29 28 27 27 26 26 27 28 28 28 29 30 30 31 32 32 33 34
14 13 14 19 20 23 23 24 21 18 19 16 15 16 18 19 19 21 22 23 25 26 27 29 31 31 32 32 31 31 30 29 27 27 27 26 26 26 26 26 27 27 27 28 29 29 30 32 33
12 11 14 16 19 21 20 21 22 21 18 14 14 15 16 16 18 20 21 21 22 24 26 27 29 31 31 32 32 30 30 29 27 28 28 27 27 27 26 26 26 25 25 26 26 27 29 30 30
13 13 14 15 17 20 21 22 24 20 18 15 14 15 15 16 18 20 20 20 21 22 23 25 26 28 30 31 31 31 29 29 28 28 28 28 28 27 26 26 27 26 25 26 27 27 28 29 30
14 14 14 16 16 18 20 23 23 20 18 16 15 15 16 17 18 20 21 21 22 22 23 24 25 26 28 28 29 29 29 29 28 28 28 27 27 27 27 27 27 26 26 26 27 27 28 29 30

GEFSSGP_500_meanwind_096.txt.gz
Wind_Speed
20 19 17 16 14 12 13 14 14 12 10 11 14 15 16 15 15 14 12 11 10 9 8 7 7 7 8 10 11 12 12 13 13 13 12 12 11 11 12 12 12 12 11 11 10 9 8 7 6
21 20 19 17 14 13 15 15 14 12 10 12 16 18 18 16 15 14 13 12 11 11 10 10 9 9 9 11 13 14 14 14 15 14 14 13 12 12 13 13 12 12 12 11 11 10 9 8 6
21 21 20 18 14 15 17 16 16 12 9 13 17 20 19 17 16 15 14 13 12 12 11 11 11 11 11 12 13 15 16 16 16 15 16 15 14 14 14 13 13 13 12 12 12 11 10 8 7
21 21 20 18 14 16 18 16 16 13 10 14 19 21 21 19 16 15 14 13 12 12 13 13 12 12 12 13 14 16 17 17 17 17 17 16 15 15 15 14 14 14 13 13 12 11 10 9 8
21 21 19 16 15 18 17 15 15 15 12 15 19 23 23 21 18 16 15 14 14 13 13 14 13 13 13 13 15 16 18 19 19 18 18 18 17 17 17 16 15 15 14 14 13 12 11 10 9
20 20 18 16 17 20 19 18 16 15 14 18 21 24 25 23 21 18 16 16 15 15 15 14 13 14 14 15 16 17 18 19 19 19 19 19 19 19 18 17 16 16 15 15 14 13 12 12 10
19 19 17 17 19 22 22 18 15 15 16 21 24 27 27 26 24 21 18 17 16 16 16 16 14 15 16 16 17 17 18 19 20 20 20 20 20 20 19 19 18 17 16 16 15 14 14 13 12
19 18 16 17 22 25 24 18 15 16 19 24 28 30 30 29 27 23 20 17 17 17 17 18 16 16 17 18 18 18 18 20 20 20 20 20 21 21 21 20 19 18 17 17 16 15 14 14 13
17 15 15 20 25 26 25 21 20 21 23 26 30 32 32 31 29 26 22 19 20 21 21 20 19 19 19 20 20 20 20 20 21 22 21 22 22 22 22 21 20 19 18 18 17 16 15 15 14
16 13 16 22 26 27 25 22 21 24 26 29 31 33 33 33 31 28 25 24 24 24 24 22 21 20 21 21 21 21 21 22 22 23 23 23 23 23 23 22 21 20 19 19 18 17 17 16 16
15 16 19 22 25 25 24 21 21 24 26 29 31 31 32 32 31 29 27 26 26 25 26 24 23 22 22 22 23 22 22 23 23 24 24 24 25 25 24 24 23 22 21 20 19 19 18 17 17
16 18 21 22 24 24 23 21 22 24 26 29 31 31 30 30 30 29 28 27 27 26 27 26 25 24 22 23 25 24 24 24 23 25 26 26 26 26 25 26 25 24 23 22 21 20 19 19 18
18 20 22 23 24 22 21 21 22 24 27 29 30 30 30 30 30 29 29 29 28 27 27 27 26 26 26 26 26 26 25 26 26 27 28 28 28 28 28 27 26 25 24 22 22 21 21 20 19
17 19 21 21 20 19 18 18 20 22 25 26 28 29 30 30 30 31 31 30 30 29 26 26 27 28 28 27 27 27 27 27 27 28 29 29 28 29 29 28 27 26 25 23 23 23 22 21 20
15 13 12 13 12 13 14 14 15 18 21 23 25 27 29 29 30 31 32 32 32 30 28 28 27 28 29 28 27 29 28 27 27 27 28 29 30 30 30 30 29 26 26 25 24 24 24 22 21
10 8 8 8 9 11 13 12 13 14 16 19 22 24 26 27 29 31 32 32 32 31 29 28 29 29 30 29 29 29 29 28 27 28 28 28 29 30 29 29 29 28 28 26 25 24 24 23 23
8 9 10 9 9 10 12 12 13 14 16 18 20 23 25 26 27 28 30 31 31 30 29 28 28 29 30 28 29 29 28 29 29 28 26 26 27 29 29 27 28 27 27 26 25 25 25 25 24
11 13 14 12 10 11 12 12 13 16 19 20 21 23 24 25 27 28 29 30 30 29 28 27 27 28 28 28 29 29 28 29 30 29 27 24 24 26 25 25 26 25 25 25 24 25 24 25 25
16 16 14 11 10 12 12 14 17 20 22 22 24 25 25 26 28 28 29 30 30 29 29 27 27 27 28 28 29 29 28 28 28 26 25 25 22 22 23 23 24 23 23 25 24 25 25 25 25
16 14 12 11 13 14 16 19 21 22 24 26 26 26 26 28 28 30 30 31 31 31 28 27 28 28 29 29 30 30 29 26 26 25 24 23 22 22 22 23 24 23 22 23 24 24 25 26 26
12 13 12 13 16 20 22 24 25 26 26 27 27 27 28 28 28 29 30 31 32 32 30 29 29 29 28 30 30 32 31 26 24 24 24 22 21 22 21 22 23 22 22 22 23 24 25 25 26
12 12 13 16 18 21 24 27 27 27 27 28 27 27 27 29 29 30 30 31 31 31 31 30 30 29 29 30 31 31 30 29 26 23 22 22 21 20 20 19 19 20 20 22 23 24 25 26 26
12 13 14 15 18 20 22 25 25 26 26 27 28 29 29 29 28 28 29 30 30 30 30 29 29 29 28 28 29 29 29 29 28 24 21 20 20 19 18 17 16 18 18 20 21 23 25 26 27
14 15 16 17 18 19 18 21 22 22 24 26 27 28 28 28 27 27 27 27 28 27 27 27 27 28 29 28 27 27 27 27 27 25 22 20 19 18 17 17 18 18 18 19 20 21 22 24 26
14 16 16 16 17 17 17 20 20 20 22 24 25 25 25 25 25 25 25 25 24 25 25 25 26 26 27 26 26 27 27 26 26 26 24 22 21 20 20 19 19 20 20 21 21 22 23 25 26
13 14 16 17 17 17 17 19 19 19 21 22 21 21 21 21 22 22 22 23 23 23 23 24 24 24 24 24 24 25 25 25 25 26 25 23 22 22 23 22 22 21 21 22 22 23 24 24 25
14 15 15 17 18 18 18 18 18 19 21 20 19 18 18 18 18 20 21 22 22 21 21 22 23 23 23 24 24 24 22 22 23 25 24 22 21 21 21 22 21 21 22 22 22 23 23 24 25
13 14 15 16 18 19 18 18 18 18 19 19 16 14 14 15 16 18 19 20 20 19 19 20 21 22 22 23 23 23 23 23 22 23 24 23 22 22 21 20 21 22 22 21 22 23 24 25 25
14 15 16 17 18 19 20 18 17 18 18 17 15 14 14 14 14 16 18 19 19 18 18 18 19 20 21 21 22 22 22 22 22 22 23 23 23 22 21 20 20 21 21 22 22 22 22 23 23
15 17 17 17 17 18 19 19 17 18 18 16 14 15 15 13 13 15 17 18 18 18 18 17 17 18 19 20 20 21 21 21 21 21 22 22 22 21 21 21 21 21 21 22 22 23 23 23 24

GEFSSGP_500_meanwind_102.txt.gz
Wind_Speed
23 21 20 18 17 16 16 17 18 17 17 16 13 9 7 6 5 5 5 5 5 4 4 4 5 5 4 4 5 4 4 4 4 4 4 4 5 5 6 6 7 8 9 9 10 10 10 9 8
24 23 22 20 18 16 17 19 20 20 19 17 14 10 8 6 6 6 5 5 5 5 5 6 6 6 6 6 6 5 5 6 6 6 6 6 6 7 7 7 7 8 8 9 9 9 9 8 7
25 24 22 20 17 16 19 21 22 21 20 19 15 12 9 7 7 6 6 6 6 6 6 6 7 7 7 7 7 8 8 8 8 8 8 8 8 8 8 8 8 8 9 8 8 9 9 8 7
25 24 22 20 16 18 22 23 24 23 22 21 18 14 11 9 7 6 7 8 7 7 7 8 8 8 8 8 9 9 9 10 10 10 10 10 9 10 9 9 9 9 9 9 8 8 8 8 7
25 24 22 19 18 22 24 26 27 26 24 22 20 17 13 10 8 8 8 9 9 9 9 9 9 9 10 10 11 11 11 12 12 12 12 11 11 11 11 11 10 10 10 10 9 9 8 8 8
24 23 21 19 21 25 28 29 28 28 26 24 21 18 16 12 11 10 10 11 11 10 10 10 10 11 11 11 12 13 13 13 13 13 13 13 13 13 13 12 12 12 12 11 10 10 9 9 8
23 22 20 20 24 28 30 30 29 28 27 24 21 19 17 14 14 14 14 13 13 13 12 11 11 12 13 13 13 14 14 15 15 15 15 15 15 15 15 14 14 14 14 13 12 11 10 10 9
22 21 20 21 25 30 32 32 31 30 27 25 23 20 18 17 16 16 16 16 16 16 15 14 13 13 15 15 15 16 16 16 16 16 16 17 17 16 16 16 16 16 15 15 14 13 12 11 11
20 19 19 22 26 31 33 33 33 32 30 28 26 23 20 19 19 19 19 19 19 18 17 17 16 16 16 16 17 17 17 17 17 18 18 19 19 19 18 18 18 17 17 16 16 15 14 13 12
18 18 20 24 28 32 34 34 34 33 32 30 27 25 22 21 20 21 22 22 22 21 21 20 19 19 18 18 19 19 18 19 20 20 21 21 22 21 20 20 20 19 18 18 17 17 16 15 14
17 19 23 26 29 32 34 33 33 34 33 31 28 26 24 24 23 24 24 25 25 24 23 22 21 22 21 21 21 21 21 21 21 23 23 23 23 23 23 22 22 21 21 20 20 19 18 17 16
18 20 23 27 29 31 32 32 32 32 32 31 30 28 27 26 26 26 27 27 26 25 24 23 22 22 23 24 23 23 23 23 23 24 24 24 24 25 24 24 23 23 22 22 21 20 19 19 18
18 19 21 24 28 29 30 30 31 30 31 31 30 28 27 28 28 29 28 27 26 25 24 24 23 24 23 24 25 24 25 26 26 25 26 25 26 26 26 25 25 25 24 23 22 22 21 20 20
15 16 18 21 25 28 29 30 30 30 31 31 30 29 29 29 29 29 28 27 26 26 25 25 24 25 25 25 26 27 26 27 27 26 25 26 27 27 27 27 27 27 26 26 25 24 23 22 21
13 14 15 19 24 27 28 29 30 30 30 30 30 29 28 28 27 27 27 27 26 26 26 25 25 25 25 25 25 26 26 26 27 27 26 27 27 28 28 29 29 29 28 28 27 26 25 24 23
13 14 15 19 23 25 26 27 28 28 27 27 26 25 25 25 24 25 25 25 25 25 25 25 26 26 25 25 25 26 28 29 28 28 28 29 29 30 29 29 31 31 30 30 29 28 28 27 25
14 14 16 18 21 24 24 24 24 24 23 23 22 22 21 21 22 23 23 24 24 24 24 25 26 26 26 27 27 27 29 29 29 29 28 28 30 31 30 29 30 31 31 30 30 29 29 28 27
15 15 17 19 20 22 22 21 21 20 19 19 20 20 20 20 21 22 22 23 23 24 24 25 26 26 26 28 29 28 28 28 29 30 30 28 29 30 30 30 31 30 31 31 31 30 29 28 28
16 17 18 19 20 20 19 19 19 19 19 19 19 20 20 21 21 22 23 24 24 24 25 26 26 26 27 28 28 27 27 27 28 29 28 29 28 29 30 30 30 30 29 30 30 30 29 28 28
17 18 18 20 20 19 19 19 19 19 19 19 20 21 22 22 22 23 24 25 25 26 26 26 27 27 27 27 28 27 26 26 26 26 26 26 27 27 29 29 28 28 28 28 28 29 29 28 29
18 18 19 20 21 21 21 21 20 20 20 21 21 23 24 24 25 25 26 27 27 27 27 27 27 27 27 27 27 27 27 26 25 25 25 25 25 27 27 27 28 28 27 26 26 27 29 28 28
18 19 20 21 21 20 21 20 19 20 20 21 23 24 25 26 27 28 29 29 28 27 28 28 27 26 26 26 27 27 26 26 27 26 25 25 25 25 26 26 25 26 27 26 25 26 26 27 27
18 18 19 19 20 20 21 21 20 20 21 22 23 24 25 26 27 27 27 27 27 27 27 27 26 26 25 25 25 25 25 25 26 26 25 25 25 24 24 24 23 23 24 25 25 25 25 26 26
18 19 19 19 19 19 19 21 20 20 21 21 22 23 25 26 26 25 25 25 26 26 25 25 24 24 24 24 23 24 25 25 25 24 24 25 25 24 23 23 23 22 22 22 23 23 22 23 24
18 18 18 19 18 18 17 19 19 19 20 20 20 22 23 24 25 24 23 22 22 23 24 24 23 22 23 23 22 23 24 24 24 24 24 24 25 23 22 22 22 21 21 21 21 22 23 23 23
17 17 18 19 18 16 16 17 18 18 18 19 19 20 21 22 21 21 20 21 21 21 22 22 22 21 21 21 21 22 22 23 23 23 23 23 23 23 23 22 22 21 21 21 21 21 22 23 24
17 16 16 17 17 17 17 16 16 16 17 18 19 20 20 20 19 18 18 18 18 18 19 20 21 20 19 19 19 20 21 21 22 21 21 21 22 23 22 22 22 22 21 22 23 22 22 23 25
17 16 15 16 16 16 15 15 15 15 16 17 18 19 20 19 18 18 18 17 17 17 18 18 19 19 18 18 18 18 19 19 20 21 21 20 20 21 21 20 21 21 20 21 23 23 23 23 24
17 16 16 16 16 17 15 14 14 15 16 17 18 19 18 18 18 18 18 17 17 17 17 18 18 18 18 18 18 18 18 18 19 20 20 20 20 20 20 20 20 21 21 21 22 22 23 23 24
17 17 16 16 16 16 16 14 14 15 16 17 18 18 17 18 18 18 18 18 18 18 18 18 17 18 18 18 18 18 18 18 18 19 20 19 20 20 19 19 20 21 22 22 22 22 23 23 24

GEFSSGP_500_meanwind_108.txt.gz
Wind_Speed
20 19 18 17 16 16 16 20 20 19 18 15 13 13 12 11 10 9 8 7 7 7 7 8 8 7 7 8 8 8 9 9 9 9 8 6 5 4 3 2 1 0 1 1 2 2 3 3 2
21 20 20 19 17 16 18 22 22 21 19 15 14 13 13 12 12 11 9 8 8 8 8 8 8 8 8 8 9 9 10 10 10 9 8 7 6 5 5 4 3 2 2 1 1 1 2 2 1
22 21 20 20 18 18 20 25 25 22 19 16 16 14 14 13 12 11 9 9 8 8 8 8 8 8 9 9 10 10 11 11 10 10 9 8 8 7 7 6 5 5 4 3 3 2 2 2 1
22 21 21 20 20 22 26 26 25 23 20 17 16 15 14 13 12 10 9 8 8 9 8 7 8 9 9 10 11 11 12 12 12 11 10 10 10 9 8 8 7 7 6 6 5 4 4 3 3
21 21 20 20 21 24 27 27 26 24 21 18 17 16 14 14 13 12 10 9 9 9 8 8 8 9 10 11 12 13 14 14 14 13 12 12 11 11 10 10 9 9 9 7 7 6 5 5 5
20 19 19 19 22 25 27 27 27 25 22 20 18 17 17 16 15 13 11 10 9 9 8 8 9 10 11 12 13 14 14 15 15 14 13 13 13 13 12 12 11 11 10 9 9 8 7 7 7
19 18 19 20 23 26 28 28 28 27 24 22 20 19 19 18 16 15 13 12 10 9 9 9 9 10 12 13 14 14 15 15 15 16 15 15 14 15 15 14 13 13 12 11 11 10 10 9 9
18 19 19 21 24 27 28 29 29 28 26 23 22 21 20 19 18 16 14 13 11 11 10 10 10 11 12 13 14 15 16 16 15 16 17 16 15 16 16 16 15 15 14 14 13 13 12 11 11
18 18 20 22 25 27 28 30 30 29 27 25 23 22 21 19 17 16 15 14 13 13 13 12 12 13 13 14 15 16 17 17 17 17 18 18 18 18 17 17 17 16 16 15 15 15 14 14 13
18 19 22 24 25 26 28 29 30 29 28 26 24 23 22 20 19 18 17 16 16 16 15 15 15 15 16 17 17 17 18 19 19 20 20 20 21 20 20 19 19 18 17 17 16 16 16 15 15
18 20 22 23 24 25 27 29 29 29 28 27 25 24 23 22 21 20 19 19 19 18 18 18 18 18 18 19 20 20 20 20 21 22 22 23 23 23 22 22 22 21 20 19 18 17 17 17 17
17 18 20 22 23 24 26 27 29 29 28 27 25 24 24 23 22 21 22 21 21 21 21 21 20 20 20 20 21 22 22 22 23 24 24 24 24 25 24 24 24 23 22 21 21 20 19 20 19
15 17 18 20 21 23 25 27 28 28 28 26 24 23 23 23 24 23 23 23 23 23 22 22 22 21 21 21 22 23 23 24 24 24 25 25 26 27 27 26 26 25 24 23 23 22 21 21 21
15 16 17 19 21 22 24 26 26 27 26 26 24 24 24 24 24 24 23 24 24 24 24 23 23 23 23 23 23 24 24 25 26 26 26 27 27 28 28 27 27 26 25 24 23 23 23 23 23
14 15 16 18 20 21 22 25 26 26 25 25 24 24 24 25 25 25 24 25 25 25 25 25 25 24 24 25 25 25 26 26 27 28 29 29 29 28 29 29 29 28 27 26 25 24 24 25 25
14 14 16 18 19 20 20 22 24 24 24 24 24 24 24 25 25 25 25 25 26 26 26 25 25 25 25 26 26 26 27 27 28 29 28 29 29 30 31 30 29 29 28 28 28 26 26 26 27
14 14 16 18 19 19 20 22 22 23 23 23 23 23 23 24 24 24 24 25 26 26 26 26 26 26 26 25 25 26 27 28 29 29 30 30 30 30 31 31 30 30 30 30 30 30 29 28 29
15 15 16 18 18 18 19 20 20 21 21 21 21 22 22 22 22 23 24 25 26 26 26 27 27 28 27 26 26 26 27 28 29 30 31 31 30 30 30 31 31 32 32 31 32 31 30 30 30
15 15 16 18 17 17 17 17 17 17 17 18 19 20 21 22 23 23 24 25 25 25 26 27 28 28 28 27 27 27 27 27 28 29 30 31 31 30 30 31 32 31 31 32 32 32 30 31 32
13 13 15 16 16 16 16 16 16 15 16 17 18 19 21 22 23 24 24 25 25 26 27 28 28 28 28 28 28 27 27 28 28 28 28 29 30 30 31 30 31 32 32 31 31 31 30 31 32
13 13 15 15 14 14 14 14 15 16 17 18 19 20 21 22 23 23 24 25 26 27 28 28 28 28 28 28 28 28 28 28 28 27 27 28 29 30 31 30 32 32 30 30 31 30 30 29 29
13 14 14 14 12 13 12 12 16 16 17 19 20 20 21 21 22 23 24 24 25 27 28 28 28 28 28 28 28 28 28 28 28 28 27 27 28 28 29 30 30 30 31 30 30 30 30 30 29
14 14 13 13 12 11 12 11 16 16 18 19 20 21 22 22 22 23 23 24 25 26 26 27 27 27 27 28 28 28 28 27 27 27 27 27 27 28 28 29 28 29 30 30 30 29 29 29 29
13 13 12 12 11 12 13 12 15 16 16 18 19 20 21 21 21 22 22 23 24 24 25 25 25 25 26 27 27 27 27 26 26 26 27 28 27 27 28 28 28 29 29 30 29 29 29 29 29
12 11 10 10 10 12 15 14 16 17 17 18 19 19 20 19 19 20 21 22 23 23 23 23 23 23 23 24 25 26 26 26 25 25 26 27 27 27 27 28 28 29 29 29 29 30 29 30 30
12 11 11 11 11 12 16 15 17 17 18 18 18 18 19 19 20 21 21 22 21 21 21 22 22 22 22 23 24 25 26 26 26 25 25 25 26 26 26 26 27 28 28 29 29 28 28 29 29
12 12 12 11 11 11 14 15 16 16 16 17 17 18 19 20 20 21 21 21 21 20 20 21 22 21 22 23 23 24 25 25 25 25 24 25 25 25 26 25 25 25 26 27 28 27 27 28 28
13 13 13 10 10 11 12 14 15 15 16 16 17 18 19 20 20 21 21 21 20 20 20 21 21 21 21 22 22 23 23 23 23 23 23 23 24 24 25 23 22 23 25 26 26 28 27 26 27
13 13 12 12 12 12 12 14 16 16 17 17 18 19 19 20 21 21 21 21 21 20 20 20 20 20 20 21 21 21 21 22 22 22 22 22 22 23 24 23 22 23 24 25 26 27 27 27 26
14 14 13 13 14 14 14 16 16 17 17 18 18 19 20 20 21 21 21 21 21 21 20 20 19 20 20 20 20 21 21 21 21 21 21 21 21 21 22 23 23 23 24 24 25 26 26 26 25

GEFSSGP_500_meanwind_114.txt.gz
Wind_Speed
16 16 16 15 13 10 6 5 11 16 18 20 18 17 18 18 18 15 14 13 11 10 10 9 9 9 10 10 10 9 9 9 10 10 9 10 9 9 9 8 7 5 4 3 2 2 2 1 1
16 17 16 16 14 8 3 8 15 19 21 18 16 16 18 19 19 17 15 13 13 12 12 11 10 11 11 11 10 10 10 11 11 11 11 11 11 10 9 9 8 7 6 5 4 3 3 3 2
16 17 16 16 13 8 6 14 19 21 20 18 17 17 18 20 18 18 17 15 14 13 13 12 12 12 12 12 12 12 12 12 11 12 12 12 12 11 11 10 10 9 8 7 6 5 5 5 4
16 16 16 15 13 9 10 17 20 20 18 17 17 18 19 20 18 17 17 16 15 14 14 13 14 14 14 14 13 13 13 13 13 13 13 13 13 13 13 12 11 10 10 9 8 7 7 7 6
15 15 15 14 12 11 15 22 23 18 16 16 17 20 22 22 20 19 18 16 15 13 14 14 14 15 15 15 14 14 14 14 14 14 14 15 15 15 14 14 13 12 11 11 10 10 9 8 8
14 14 14 11 9 13 19 25 25 20 15 16 18 21 22 19 17 16 16 15 13 13 13 14 14 15 15 15 15 15 15 15 15 15 15 16 16 16 15 15 15 14 13 13 12 12 11 10 10
14 14 12 9 9 15 21 25 23 19 16 16 19 22 23 21 16 15 16 15 14 14 13 13 14 14 15 15 15 15 16 16 16 16 16 17 17 17 17 17 16 16 15 15 14 14 13 12 11
14 15 14 11 12 16 23 25 23 19 18 18 21 23 24 24 18 15 16 16 15 14 13 13 14 15 15 16 16 16 16 17 17 17 17 18 18 18 18 18 18 18 18 18 17 16 15 14 14
14 14 13 10 12 16 21 19 19 20 19 22 23 23 25 20 16 15 16 17 16 15 14 14 14 15 15 15 16 16 17 18 18 18 18 18 19 19 20 20 20 20 19 19 19 19 18 17 16
13 12 9 10 14 16 19 17 17 16 17 20 22 24 23 21 18 17 17 18 17 16 15 14 14 14 15 16 17 17 18 18 19 19 20 20 20 21 21 22 22 22 22 21 21 20 20 19 18
13 14 13 19 22 20 16 15 16 14 16 17 20 24 24 21 19 19 20 20 18 17 16 15 16 16 16 17 18 18 18 19 20 20 21 21 22 23 23 23 23 23 24 23 23 23 22 21 20
15 18 19 21 22 23 17 15 17 16 16 18 20 21 18 19 20 22 22 22 20 18 16 15 15 15 15 16 17 18 18 20 20 21 22 23 23 24 25 25 25 25 25 25 24 24 23 23 22
16 18 20 20 20 20 19 18 16 17 21 22 23 21 18 20 21 23 24 25 21 19 16 15 16 16 17 17 18 19 20 21 21 22 23 24 24 25 25 25 25 26 26 25 24 24 25 24 24
15 16 18 19 19 18 18 18 18 19 19 20 19 19 18 20 22 24 26 23 23 21 17 16 16 16 18 19 19 20 21 21 22 23 23 24 26 26 26 26 27 27 26 26 26 26 25 26 26
15 15 15 15 16 16 16 16 17 18 18 19 19 19 20 22 24 25 25 23 20 19 16 16 17 18 19 20 20 21 22 23 23 24 25 26 27 28 28 28 28 28 27 27 27 28 27 27 27
13 13 13 12 13 15 14 14 17 18 18 19 19 20 21 23 24 24 23 23 21 22 19 18 20 20 21 22 22 23 24 24 24 26 26 27 28 30 30 29 30 29 29 29 29 29 28 28 28
10 10 10 11 12 12 12 14 19 19 17 18 19 20 20 22 23 22 22 21 21 22 22 22 22 23 23 24 24 25 25 26 26 27 28 29 30 30 31 31 32 32 31 30 31 31 30 28 29
7 7 8 12 14 11 12 14 20 19 18 18 18 20 22 21 21 22 21 21 22 23 24 24 24 25 25 25 26 26 27 28 28 29 30 30 31 31 32 32 32 32 31 32 31 32 31 30 29
8 9 12 15 16 12 13 17 20 20 18 18 19 21 21 20 20 21 22 22 23 24 24 25 25 25 26 27 27 28 28 29 30 30 30 31 31 32 32 32 32 32 31 31 30 30 31 31 30
14 14 14 16 16 15 15 18 19 19 20 19 20 20 19 19 19 20 21 22 23 24 25 26 26 27 28 28 29 30 30 30 31 31 31 32 32 32 32 32 32 32 32 31 30 29 30 30 31
16 15 15 16 17 16 16 18 20 19 18 18 19 19 18 18 18 19 21 22 23 25 26 27 28 29 30 30 31 31 31 31 31 31 32 32 32 32 32 32 31 31 31 31 31 31 31 31 32
15 15 16 14 15 15 14 18 20 21 19 17 18 19 18 18 19 20 21 22 24 25 26 27 28 29 30 31 32 32 32 32 32 32 32 31 32 32 32 31 32 31 31 30 30 31 32 32 33
14 13 14 16 17 17 16 17 21 22 21 20 18 17 17 19 20 21 22 24 25 26 26 27 28 29 30 31 31 31 32 31 31 31 31 31 32 31 31 32 31 31 30 30 31 32 32 32 32
13 12 13 15 17 19 18 19 22 23 20 19 14 15 17 18 19 21 22 23 24 25 25 26 28 29 29 30 31 31 31 31 31 31 31 31 30 29 30 30 31 31 30 30 30 31 31 32 32
13 13 14 15 17 20 20 21 24 24 21 18 16 17 17 19 21 21 22 23 24 24 25 26 27 28 28 28 29 29 29 29 29 30 31 30 30 29 28 29 29 29 30 29 30 30 31 30 31
14 13 14 15 15 16 15 19 23 20 17 17 17 18 18 19 21 22 22 23 24 25 25 26 26 27 27 27 28 28 28 28 28 29 30 29 29 28 28 28 28 28 28 28 28 28 29 29 29
12 13 14 13 13 16 15 16 18 16 16 18 18 19 20 21 21 22 23 24 25 25 26 26 26 26 26 26 26 26 26 26 27 28 28 28 28 28 28 27 27 27 27 27 27 28 27 27 27
13 12 13 14 14 15 15 18 17 14 15 18 19 19 20 21 22 22 23 24 24 25 26 26 26 26 26 26 25 26 26 26 26 26 26 26 26 26 27 27 27 27 27 26 26 27 27 27 27
13 14 14 14 15 16 17 17 17 18 17 17 19 20 21 22 22 23 23 24 25 26 26 26 26 25 25 25 24 24 25 25 25 25 25 25 26 25 26 25 26 26 26 26 25 25 26 26 26
15 14 15 15 16 18 20 20 18 20 18 19 20 21 21 22 23 23 24 24 25 25 26 26 25 24 24 24 23 23 23 24 24 25 25 25 25 25 25 25 25 25 25 25 25 25 25 24 24

GEFSSGP_500_meanwind_120.txt.gz
Wind_Speed
15 14 13 12 12 12 13 14 15 15 14 14 15 16 17 17 15 15 13 11 10 8 7 7 8 8 9 9 9 9 9 9 9 9 9 8 8 8 8 8 9 9 9 9 8 8 7 6 6
15 14 13 12 12 13 15 16 16 16 15 15 17 18 18 17 16 16 16 14 12 11 10 9 10 10 10 10 10 11 11 10 10 10 10 9 9 9 9 9 10 10 10 9 9 9 8 7 7
14 14 13 12 13 16 17 18 16 15 15 16 18 18 19 18 17 18 18 16 14 13 12 11 11 11 11 11 11 11 12 11 11 11 10 10 10 11 11 10 10 10 10 10 10 10 9 9 8
14 13 12 12 15 18 19 19 18 16 17 19 20 20 20 18 18 19 18 16 15 13 12 12 12 12 12 12 12 12 12 12 12 12 12 11 11 12 12 11 11 11 11 11 11 11 11 10 9
13 13 13 14 17 19 20 20 18 15 17 20 21 21 20 18 17 17 18 15 15 12 12 12 12 12 13 13 13 14 13 13 13 13 13 13 13 13 13 12 12 12 12 12 13 13 12 11 10
12 12 13 16 19 20 21 19 17 16 17 20 22 23 21 19 19 18 16 15 15 13 12 12 12 13 14 14 14 14 14 14 14 14 14 14 14 14 14 14 14 14 14 14 14 13 13 12 12
12 11 13 17 20 20 21 19 16 16 19 23 24 25 24 22 20 19 16 16 16 14 13 13 13 13 13 14 15 15 16 15 15 16 16 16 16 16 16 16 15 15 15 15 15 15 15 14 13
12 11 13 18 21 21 19 16 15 18 22 25 27 27 26 24 22 20 18 16 15 15 15 14 15 15 15 14 15 16 16 16 16 16 16 16 17 17 16 16 16 16 16 16 16 17 16 16 16
11 11 15 20 22 21 17 14 16 19 24 25 27 27 26 25 24 22 20 17 17 17 16 16 16 15 15 15 15 16 16 17 17 17 17 17 18 18 17 17 17 17 17 17 18 18 18 18 18
11 13 18 21 22 21 17 16 18 20 23 24 26 27 26 25 24 22 21 20 19 16 15 16 16 16 15 15 15 15 16 17 17 18 18 18 18 18 19 19 19 19 19 19 19 19 20 20 20
14 17 21 22 22 19 18 19 20 22 23 24 24 26 25 25 24 22 21 18 18 16 15 15 16 16 15 15 15 15 16 16 17 18 18 19 19 19 19 19 20 20 20 20 20 20 21 22 22
17 21 22 23 22 19 20 21 22 22 22 22 22 23 24 23 22 20 20 18 16 15 15 15 15 16 17 16 15 15 16 17 18 18 19 19 20 20 20 20 21 21 21 22 22 21 21 22 22
20 23 23 23 22 21 21 22 24 23 23 22 21 22 22 23 22 22 21 20 18 16 17 16 16 17 18 16 15 15 16 17 19 19 19 20 20 21 21 21 22 23 23 23 23 22 21 21 22
21 24 25 24 23 21 22 23 24 24 23 23 22 22 23 22 23 22 21 21 19 17 16 15 16 17 16 16 15 16 16 18 19 19 19 21 22 22 22 23 23 23 24 24 24 24 23 22 23
21 22 22 21 21 21 21 22 24 23 23 22 21 21 20 21 21 20 20 20 18 17 15 15 15 16 16 14 14 14 16 17 18 19 20 21 22 23 23 24 25 25 25 25 26 25 25 25 26
18 18 17 16 15 16 19 20 21 21 21 21 20 20 20 20 19 18 18 17 16 17 16 14 14 14 15 14 14 15 16 17 19 20 21 22 23 24 25 25 26 26 27 26 26 25 26 27 27
14 14 14 14 14 13 14 17 19 19 20 19 18 18 19 19 19 18 17 17 18 18 17 14 13 13 14 14 14 15 17 18 19 20 22 23 24 25 26 26 27 26 27 27 27 27 27 27 27
12 13 13 13 12 12 12 13 16 17 19 18 19 20 19 19 18 17 16 16 17 16 14 14 14 14 13 14 15 17 18 19 20 22 23 24 25 26 27 27 27 27 28 27 27 28 28 27 27
14 14 13 12 10 10 11 12 14 16 17 18 19 20 19 18 18 17 16 16 16 14 13 13 13 14 15 16 17 19 20 21 22 23 25 26 26 27 28 28 28 28 28 27 28 28 28 27 28
15 14 12 11 11 12 13 15 17 18 18 18 19 19 19 18 17 16 15 15 16 15 15 14 15 16 17 18 19 21 21 22 24 25 25 26 27 27 27 28 28 28 28 27 27 27 28 28 28
15 14 12 11 12 13 15 18 20 20 20 19 19 18 17 16 16 15 14 14 16 15 16 16 16 17 18 19 21 22 23 24 24 25 25 26 27 27 27 27 27 27 27 28 27 26 26 27 28
16 14 13 13 15 14 16 19 20 22 20 19 19 18 18 17 16 15 15 15 16 16 17 17 18 18 19 20 21 22 23 24 24 24 25 26 26 27 27 27 27 27 27 28 28 27 27 27 27
15 14 14 15 17 17 19 21 21 22 22 21 19 19 20 18 17 16 16 17 17 18 18 18 19 19 20 20 22 23 24 25 25 25 26 26 27 27 27 27 27 27 27 27 27 27 27 27 26
15 16 16 17 19 19 20 22 22 23 23 23 22 21 20 17 17 17 18 18 18 19 19 19 20 21 21 22 23 23 25 25 26 26 26 26 26 27 27 27 27 26 26 26 26 26 26 26 25
15 17 17 18 19 20 20 21 22 22 23 22 22 21 19 18 18 18 17 18 19 19 19 20 21 22 23 24 25 25 26 26 26 26 26 26 26 26 26 26 26 25 24 24 25 25 25 25 25
16 16 17 18 20 20 21 22 21 21 22 21 21 19 15 14 14 15 16 17 19 19 20 22 23 24 25 25 26 26 27 27 26 26 26 26 26 26 25 25 25 24 24 23 24 24 24 24 25
15 16 16 17 17 18 20 20 19 19 19 21 21 18 15 14 14 15 17 19 20 21 22 23 24 25 25 26 26 26 26 26 26 26 26 26 26 26 25 24 23 22 22 22 23 22 23 23 23
15 15 16 16 16 17 17 17 17 17 17 17 17 17 15 15 15 16 18 19 21 22 23 24 24 25 25 25 25 26 26 26 26 26 26 26 26 25 24 24 23 22 21 21 21 21 21 22 22
16 16 16 16 16 17 17 16 17 16 15 17 17 16 15 14 16 17 18 20 21 22 23 24 25 25 25 25 25 25 25 25 25 25 25 25 25 25 25 24 23 22 22 21 21 21 20 21 21
17 17 17 17 16 17 18 17 17 17 17 16 16 15 14 14 15 17 19 20 21 22 23 24 24 25 25 25 25 25 25 24 24 24 25 24 24 24 24 23 22 22 21 21 22 21 21 20 20

GEFSSGP_500_meanwind_126.txt.gz
Wind_Speed
14 14 15 15 15 15 16 17 18 17 16 14 12 10 10 10 10 10 10 10 8 8 8 8 8 8 8 7 7 6 5 5 5 5 5 5 5 5 5 6 7 8 8 8 9 9 9 9 8
14 14 15 15 16 16 18 19 19 18 17 15 13 11 11 12 12 12 11 10 10 10 10 9 9 9 9 8 8 8 7 7 6 6 6 6 6 6 6 7 8 8 8 8 8 8 9 9 8
15 15 15 15 16 17 19 20 20 19 18 16 14 13 12 14 15 14 13 13 12 11 12 11 11 10 10 10 10 9 9 8 8 8 7 7 7 7 7 8 8 8 8 8 8 9 9 9 8
15 15 15 16 17 19 20 21 21 20 18 16 15 13 13 15 15 15 15 15 13 13 14 13 12 12 11 11 11 10 10 10 10 9 9 8 8 9 9 9 9 9 9 9 9 9 9 9 9
16 15 16 16 18 20 22 23 22 20 19 17 15 14 15 16 17 16 16 16 14 14 15 14 13 13 13 12 12 11 11 12 11 11 10 10 10 10 10 11 11 11 11 11 11 11 10 10 10
16 15 16 17 20 22 24 24 22 21 19 18 16 15 16 17 17 17 16 15 15 15 14 13 13 13 13 13 14 13 13 13 13 12 12 12 12 12 12 12 13 12 12 12 12 12 11 11 11
15 16 17 20 22 24 25 24 23 21 20 18 17 16 16 17 18 18 17 16 17 16 14 13 14 14 14 15 15 15 15 14 14 14 13 13 13 13 13 13 13 14 14 14 14 14 13 13 13
16 16 18 21 23 25 25 24 23 22 21 19 18 17 17 18 18 18 18 19 18 17 14 14 15 15 15 15 16 16 15 15 15 15 15 15 15 15 15 15 15 16 16 15 15 15 15 15 15
16 17 20 23 24 25 25 25 24 22 21 19 17 17 18 18 18 18 19 19 18 16 15 14 15 17 17 17 17 17 16 16 16 16 16 16 16 17 17 17 17 17 17 17 17 16 16 16 17
17 19 22 24 25 26 26 25 24 23 22 19 17 16 17 17 18 19 18 17 17 16 16 16 17 18 18 19 18 18 17 17 17 17 17 17 18 18 19 19 19 18 19 19 19 19 18 18 18
19 21 23 25 26 27 26 26 25 25 23 21 18 17 18 18 19 19 17 17 15 15 15 16 17 18 18 18 19 19 19 19 18 19 19 19 19 20 20 20 20 20 20 20 20 20 20 19 19
20 23 24 25 26 27 27 26 26 25 23 21 20 18 18 19 19 18 18 17 16 15 16 15 15 16 17 18 19 20 21 20 20 20 20 20 20 21 20 21 21 21 21 21 21 21 20 20 20
21 23 25 26 26 27 27 27 26 24 23 22 20 19 19 19 18 18 17 17 17 15 14 14 16 16 18 18 18 19 21 21 22 22 21 22 22 21 21 22 22 22 22 22 22 22 22 22 22
21 23 24 25 26 27 27 27 26 24 23 22 21 21 20 18 18 18 17 17 16 15 15 14 14 16 16 17 18 19 21 22 22 22 21 22 23 23 23 23 23 23 24 24 23 24 24 24 24
21 22 23 25 26 27 27 27 26 24 24 23 21 21 20 18 18 18 18 17 17 16 15 14 14 15 16 16 18 19 21 22 22 22 22 23 23 24 24 24 24 25 25 25 25 26 26 26 25
19 21 23 25 26 26 26 26 25 24 23 22 21 20 20 18 18 18 18 16 16 15 14 14 14 15 17 17 18 20 22 22 22 23 23 23 24 24 25 25 25 25 26 26 27 27 28 27 26
18 20 23 25 25 26 25 25 25 23 22 21 20 20 19 18 18 18 17 15 14 14 13 14 14 16 16 18 20 21 21 22 22 22 22 23 24 23 24 24 25 25 26 27 28 28 28 28 27
18 19 21 23 24 25 24 24 24 22 21 20 19 19 18 17 18 18 17 15 13 13 14 15 15 14 15 16 17 20 21 21 21 22 22 22 23 22 22 23 24 26 27 27 28 28 28 28 28
19 19 19 21 23 23 22 22 22 20 20 19 18 17 17 18 18 18 18 16 15 14 14 15 15 15 15 15 16 19 21 20 20 21 20 20 20 21 22 23 24 26 27 28 29 29 29 28 28
18 18 18 19 21 21 21 21 21 19 18 17 17 17 18 18 19 19 17 17 16 15 15 15 14 15 16 16 16 17 17 17 19 20 20 21 21 22 23 23 24 25 27 28 28 28 28 29 29
17 17 18 19 20 21 20 19 19 17 16 15 15 16 16 18 19 18 18 17 17 15 16 17 16 16 17 17 17 18 19 19 20 21 22 23 23 24 24 25 25 26 27 28 28 28 28 29 29
17 16 18 20 20 20 20 19 17 16 15 15 16 16 16 17 18 19 18 17 18 18 17 17 17 17 18 18 18 20 20 21 22 23 24 24 25 25 25 25 26 27 27 28 28 29 29 29 29
16 17 17 18 19 19 19 19 16 15 14 15 15 16 17 18 18 18 18 18 19 18 17 17 18 19 19 19 20 21 21 22 23 24 24 25 25 25 25 26 26 27 27 27 28 28 28 29 29
17 17 17 18 18 19 19 19 17 15 15 16 16 17 18 18 18 19 19 19 19 19 18 18 18 19 19 20 21 21 22 23 24 25 25 25 26 26 26 27 27 27 27 27 27 27 27 28 28
17 18 18 17 17 17 18 18 16 15 16 17 19 19 19 20 20 19 20 20 20 19 19 18 19 19 20 21 22 23 24 25 26 26 26 27 27 27 27 27 27 27 26 26 26 26 26 26 27
16 17 18 18 18 17 17 18 16 16 16 17 17 18 19 20 20 20 20 19 19 19 19 19 20 21 22 23 23 24 24 26 27 27 28 28 28 28 28 27 27 27 26 26 26 26 26 26 26
16 17 18 19 18 18 18 18 18 17 17 18 18 18 19 19 18 18 18 18 18 19 20 21 21 22 23 24 24 25 26 26 27 27 28 28 27 27 28 28 28 27 27 26 26 26 26 25 25
16 16 17 18 18 18 17 17 17 18 18 20 19 19 18 18 19 18 18 18 19 20 20 21 22 23 24 25 26 27 27 27 27 27 27 26 27 27 27 27 27 26 26 26 25 25 25 25 24
16 17 17 17 18 18 18 16 16 17 18 18 18 18 18 19 18 19 20 19 20 21 22 21 22 23 24 25 26 26 27 27 27 27 27 27 26 26 25 25 25 25 25 25 25 25 25 24 24
16 17 17 17 17 17 17 16 16 17 17 18 18 18 18 19 19 19 20 21 21 22 22 21 22 23 24 24 25 25 25 25 26 26 25 25 24 24 24 24 24 24 24 24 25 24 24 24 24

GEFSSGP_500_meanwind_132.txt.gz
Wind_Speed
14 13 13 13 13 13 15 16 14 13 12 10 9 8 7 7 6 6 6 6 6 7 6 6 6 7 8 8 8 8 7 6 6 4 3 2 1 1 0 1 2 2 3 4 4 4 5 5 5
14 14 14 14 14 14 17 17 15 13 12 10 10 9 9 8 8 8 7 7 7 7 8 8 7 8 9 9 9 10 9 8 8 6 5 4 3 2 2 1 1 1 2 3 3 3 4 4 4
15 15 14 15 16 16 19 17 15 13 12 11 11 10 10 9 9 9 9 9 9 8 8 8 8 9 9 10 11 11 11 10 9 8 7 6 6 5 4 3 3 3 3 3 3 4 4 4 4
15 15 15 16 18 20 20 17 15 13 13 12 11 11 11 11 11 11 11 11 11 10 9 9 9 10 11 12 12 13 12 11 11 10 9 8 8 7 6 5 5 4 4 4 4 5 5 5 5
16 15 15 17 19 20 19 18 16 14 13 12 12 11 11 12 12 13 12 12 11 10 9 9 10 11 11 12 13 14 13 12 12 11 11 10 10 9 8 7 7 6 6 6 6 6 6 6 6
16 15 16 18 20 20 20 18 16 15 13 13 12 13 13 12 13 13 13 13 11 11 10 11 11 12 13 13 14 15 15 14 14 13 12 12 11 11 10 9 9 8 8 8 8 8 7 7 7
16 16 18 20 21 21 20 18 17 15 14 13 13 13 13 13 13 14 13 13 12 11 12 12 13 14 15 15 16 17 17 17 16 15 14 14 14 13 12 11 11 11 10 10 10 9 9 9 9
17 17 19 21 22 22 20 18 17 16 16 15 14 14 14 14 13 14 14 14 13 12 12 13 14 15 16 17 17 18 18 18 18 17 16 16 16 16 15 14 14 13 13 12 11 11 11 10 10
17 18 20 22 22 21 20 19 17 16 16 16 15 15 15 14 14 13 13 13 13 12 11 13 14 15 16 18 19 19 19 20 19 18 18 18 18 17 17 16 16 15 14 14 14 13 13 13 13
17 19 21 21 21 20 19 19 18 17 17 16 16 16 15 14 14 13 13 13 13 13 12 12 13 15 17 19 21 21 20 20 20 20 20 20 20 19 19 18 17 16 16 16 16 16 15 15 15
18 20 19 20 20 19 19 19 19 18 18 18 17 17 16 15 15 14 14 14 13 12 12 13 13 15 18 19 20 21 21 20 21 21 21 21 21 20 20 19 18 18 18 18 18 17 17 17 16
18 19 19 19 19 19 19 19 20 19 19 18 18 18 17 16 15 15 15 14 14 13 13 13 14 16 18 19 20 21 21 22 23 22 22 22 22 21 21 20 20 20 20 20 19 19 19 19 18
18 19 19 19 19 19 20 20 20 20 19 19 19 19 18 17 17 16 15 15 15 15 15 15 15 16 17 18 20 22 22 23 23 22 22 23 22 23 23 23 22 21 21 21 22 21 21 21 20
18 18 19 19 19 19 20 20 20 21 20 20 20 19 19 18 17 17 17 16 16 16 16 16 16 17 18 20 21 23 24 24 24 23 24 24 24 23 24 24 24 23 23 23 23 23 22 22 22
18 18 19 19 19 20 20 21 22 21 21 21 21 21 20 19 19 18 18 18 17 16 17 18 17 18 19 19 20 23 24 24 24 24 24 24 25 25 25 25 25 24 24 25 25 24 23 23 23
17 17 19 20 20 20 20 21 22 21 21 21 21 21 21 20 19 18 18 18 18 17 18 18 18 18 20 21 21 23 23 24 24 25 25 25 26 26 26 25 26 26 26 26 25 25 24 24 24
16 17 18 20 20 20 20 21 21 20 21 21 21 21 20 20 19 19 18 18 18 18 19 19 19 19 19 21 21 22 22 24 24 25 25 26 26 26 26 26 27 28 27 26 25 25 25 24 24
16 17 18 19 19 19 20 21 21 20 20 20 20 20 20 20 20 19 19 19 18 19 19 19 19 19 20 20 21 21 22 24 25 25 25 26 27 27 27 26 26 26 26 26 26 26 25 25 25
17 17 18 19 19 18 19 20 20 20 20 20 20 20 20 21 20 20 19 19 19 19 19 19 19 19 20 20 20 21 21 23 24 25 25 26 26 27 27 27 27 26 27 26 26 27 26 26 26
16 17 18 19 19 18 18 19 20 20 19 19 19 19 20 21 21 20 19 19 19 19 19 19 19 19 18 19 20 21 21 22 23 24 25 26 27 27 26 26 26 26 26 25 26 26 27 28 28
15 16 18 18 18 18 18 19 18 18 18 18 19 19 19 20 20 19 20 20 19 19 19 19 19 19 19 19 20 21 22 22 22 23 24 24 25 26 26 26 26 26 26 25 25 26 27 28 28
15 16 17 17 16 17 17 16 18 17 17 17 17 18 19 20 20 20 20 19 19 19 19 19 19 18 18 19 20 20 20 21 22 22 23 23 24 24 24 25 26 26 26 26 26 26 27 28 28
16 15 16 16 16 16 16 15 17 17 17 16 17 18 20 20 20 20 20 19 19 19 19 19 19 19 19 20 20 21 22 22 22 23 24 24 25 25 25 26 26 26 26 26 27 27 28 28 28
15 15 15 15 14 15 15 14 16 17 16 17 17 18 20 20 20 20 20 20 20 20 20 20 20 20 20 21 22 22 22 23 23 24 25 25 26 27 27 27 27 27 27 27 27 28 28 28 28
14 13 12 12 13 14 16 15 16 16 15 16 17 19 20 20 21 21 21 21 21 21 21 21 21 21 21 22 22 22 23 24 25 26 25 26 26 26 27 27 27 27 27 28 28 28 28 28 28
14 14 13 13 13 14 17 16 15 15 15 15 16 18 19 19 20 20 21 20 20 20 20 21 21 21 22 22 23 23 24 25 25 26 26 26 26 26 26 26 27 27 28 28 28 29 29 28 28
14 14 15 14 14 14 15 16 16 16 16 16 17 18 18 19 19 20 20 20 21 21 20 20 21 21 22 23 23 24 24 25 25 25 25 25 26 26 26 27 27 28 28 28 28 28 28 28 28
14 14 15 13 13 13 14 15 16 16 17 17 17 17 18 18 19 20 20 20 20 20 20 21 21 22 23 24 24 24 24 25 25 25 25 26 26 27 27 27 27 27 27 27 28 28 28 28 29
14 15 14 13 14 13 14 15 16 16 16 17 17 17 18 19 20 21 21 21 21 21 22 23 23 23 23 24 24 24 25 25 25 26 26 26 26 26 26 27 27 27 27 27 27 27 27 27 28
15 15 14 14 15 14 14 16 17 17 17 16 17 18 19 19 20 21 22 22 21 22 22 23 24 24 24 25 25 25 25 25 26 26 26 26 26 26 26 26 26 26 26 26 26 26 26 27 26

GEFSSGP_500_meanwind_138.txt.gz
Wind_Speed
12 11 10 8 6 4 3 5 11 17 16 13 11 11 10 9 9 10 9 9 9 9 9 9 9 10 10 10 9 9 9 9 9 9 9 9 8 7 6 5 4 3 3 2 1 1 1 2 2
12 12 11 9 7 4 1 8 16 17 15 12 11 11 12 11 11 11 11 10 10 10 10 10 11 11 11 11 11 11 12 11 11 11 11 10 10 9 8 7 6 5 4 4 3 3 2 2 2
13 13 12 10 7 4 6 15 20 19 15 12 11 12 12 11 11 11 11 11 11 11 11 12 12 13 13 13 13 14 14 14 14 13 13 12 11 11 10 9 8 7 6 6 5 4 4 4 4
14 13 12 11 7 5 12 18 21 19 15 12 12 13 12 12 12 11 12 12 12 12 12 12 13 13 14 14 15 15 15 16 16 15 14 14 13 12 11 10 9 9 8 7 7 6 5 5 6
15 14 12 10 8 11 16 19 19 15 14 12 13 14 13 12 12 11 12 12 12 12 13 13 14 14 15 15 16 16 16 17 17 17 16 15 14 14 13 12 11 11 10 9 8 8 7 7 8
15 14 11 9 11 17 22 20 17 14 13 14 16 15 12 12 12 12 12 13 13 13 13 14 15 16 16 17 17 17 18 18 18 19 18 17 17 16 15 14 13 12 12 11 10 10 9 9 9
17 14 11 9 13 18 21 18 14 14 16 15 15 15 11 12 12 12 13 13 13 13 14 15 16 17 18 18 19 19 20 20 20 20 20 20 19 18 17 15 14 14 14 13 12 12 11 11 10
17 16 13 11 14 17 22 18 15 14 15 17 17 16 13 12 12 13 13 14 14 14 15 16 16 17 18 19 20 21 22 22 22 22 22 22 21 20 19 18 17 16 15 14 14 13 13 12 12
16 14 12 12 14 18 22 18 16 17 18 18 19 15 12 12 13 14 14 15 15 15 16 16 17 18 19 20 21 22 23 24 24 24 24 23 23 21 20 20 19 18 17 16 16 16 15 15 14
15 12 11 16 17 19 20 16 17 17 18 19 17 13 12 12 14 15 15 16 16 16 16 17 17 19 20 21 22 22 23 24 24 25 25 24 24 23 22 21 21 20 19 18 18 17 17 17 16
16 13 18 22 22 20 18 17 17 16 19 20 17 14 13 13 15 16 16 17 17 17 17 17 17 19 20 19 21 22 22 24 25 25 26 26 26 25 24 22 22 21 20 19 19 18 18 18 18
17 18 21 21 22 20 17 16 17 19 21 20 17 14 12 14 16 17 18 18 19 18 18 18 17 19 20 21 21 22 23 22 24 26 27 28 26 24 23 22 22 22 21 20 19 20 20 19 19
17 19 20 19 18 18 18 18 17 19 20 19 19 15 13 15 17 17 19 19 19 19 18 20 19 19 20 22 21 22 24 24 23 25 26 27 24 22 23 23 22 22 21 20 20 20 20 19 19
17 18 18 17 17 17 17 17 18 19 18 18 16 15 16 17 17 18 19 20 20 21 21 20 21 21 21 21 21 23 23 23 24 23 24 24 24 24 23 22 22 22 21 21 21 21 20 20 20
16 16 15 15 16 16 16 17 19 18 18 17 16 17 18 18 18 19 20 20 21 20 20 20 21 22 22 22 23 23 22 23 24 24 24 26 26 25 24 24 23 23 22 22 22 22 22 22 22
15 14 14 14 15 15 15 16 19 18 18 17 18 19 19 19 19 20 20 20 20 20 20 21 22 23 23 23 23 23 23 24 24 25 25 27 26 25 24 24 23 24 24 23 22 22 23 23 22
12 11 12 15 16 14 15 17 19 20 19 18 18 19 19 19 19 20 21 20 21 21 21 21 22 23 23 23 24 23 24 24 24 24 24 24 24 23 23 24 24 24 24 23 23 24 24 24 24
10 10 11 15 17 14 15 18 19 19 18 19 18 19 19 19 19 20 20 20 21 22 22 22 22 23 23 23 23 24 24 24 25 24 24 24 24 24 24 24 24 25 25 24 24 24 24 24 24
12 12 13 15 18 16 16 19 20 18 19 20 19 20 19 20 18 19 19 20 22 22 22 22 22 23 24 24 24 24 24 25 25 25 24 24 25 25 25 25 25 26 25 25 25 25 25 24 24
15 14 15 16 19 17 17 18 19 19 20 20 21 20 20 19 18 18 20 21 21 22 23 23 23 24 24 24 25 25 25 25 25 24 24 25 25 25 25 25 26 26 25 25 25 25 25 24 24
15 15 15 17 19 18 16 17 19 20 21 21 20 21 21 21 19 20 21 21 22 22 22 23 24 25 25 25 25 25 25 24 23 23 23 24 24 24 24 24 25 26 26 26 26 26 26 25 25
16 16 17 18 19 18 17 18 21 20 22 21 20 21 21 22 20 20 21 21 22 21 22 23 23 25 25 26 25 25 24 24 23 23 23 23 23 23 24 24 25 26 26 26 26 26 26 26 26
15 15 17 17 18 18 19 20 20 22 23 23 22 21 21 21 21 20 21 22 22 22 23 24 25 26 26 26 25 25 25 24 23 23 24 25 25 24 24 24 24 25 25 25 25 26 26 26 26
16 15 16 16 17 19 18 20 21 24 24 23 21 21 20 20 21 20 21 22 22 23 24 25 25 26 27 26 24 24 23 23 23 23 24 24 24 24 24 24 24 24 24 25 25 25 26 26 27
16 15 15 16 18 20 19 21 22 25 23 22 19 20 21 21 21 21 22 22 23 24 25 25 25 26 27 25 25 24 23 23 23 23 23 22 22 22 23 23 24 25 25 25 25 26 26 26 27
17 16 16 16 17 18 17 19 22 22 21 21 18 20 22 22 22 22 22 23 24 24 25 25 25 25 25 25 25 24 24 23 23 23 23 23 23 24 24 24 24 25 26 26 25 26 26 27 27
16 16 15 17 17 18 18 18 20 21 21 21 21 21 22 22 22 23 23 22 23 24 24 25 25 25 25 24 24 24 24 24 24 24 24 23 24 24 24 24 25 25 25 25 26 26 26 27 27
16 16 17 18 17 19 19 20 21 20 19 20 21 22 22 22 22 23 23 24 24 25 24 25 25 25 25 24 24 24 25 25 25 25 24 24 24 23 23 23 24 24 25 26 26 26 26 26 26
16 16 18 18 19 19 19 21 21 21 19 20 20 21 22 22 22 23 23 24 24 24 25 25 25 26 25 25 26 26 26 26 26 26 25 24 24 25 25 25 24 24 25 25 25 25 26 26 26
16 16 18 20 20 20 22 24 23 22 21 18 19 20 22 23 23 23 24 24 24 25 25 26 25 25 25 26 26 26 27 26 26 26 25 25 25 25 25 25 24 24 24 24 24 24 24 25 25

GEFSSGP_500_meanwind_144.txt.gz
Wind_Speed
10 10 9 10 10 10 10 9 8 7 6 8 10 12 11 10 8 7 7 7 7 7 6 6 7 7 7 8 8 8 8 9 10 10 10 10 10 11 11 10 9 9 9 8 7 6 6 5 4
11 11 11 11 12 12 11 10 9 8 8 9 11 12 12 11 10 8 8 8 7 7 7 7 8 8 9 9 10 10 10 11 11 12 12 11 12 12 12 11 11 10 10 9 9 8 7 7 6
12 12 13 13 14 14 12 10 9 10 11 12 13 13 13 12 10 10 9 9 8 8 8 8 8 9 9 10 11 12 12 12 13 13 13 13 13 13 13 13 12 12 11 11 10 10 9 8 8
14 14 15 15 16 15 14 12 10 10 13 15 16 16 14 12 10 10 10 9 9 9 9 9 10 10 11 12 12 13 14 14 14 15 15 15 15 15 15 14 14 13 13 13 12 11 11 10 10
16 15 16 17 18 16 14 13 12 12 15 17 18 17 15 13 10 10 10 9 9 9 9 10 11 12 13 13 14 15 15 16 16 16 17 17 17 17 16 16 15 15 14 14 14 13 13 12 11
17 16 16 18 18 16 15 13 12 13 16 18 18 16 14 12 10 10 11 10 10 10 10 11 12 13 14 14 15 16 17 17 18 18 18 18 18 18 18 18 17 16 16 15 15 15 14 14 13
17 17 17 19 19 17 15 13 13 16 20 20 19 17 15 13 11 9 11 11 11 11 12 12 13 13 14 15 15 16 17 18 19 19 19 19 19 20 19 19 19 19 18 17 16 16 15 15 14
18 18 19 20 19 19 18 15 16 19 22 21 19 18 17 16 12 11 12 12 12 12 13 13 14 15 16 16 17 17 18 19 20 20 20 20 21 21 21 21 20 20 20 20 19 18 17 17 16
19 19 21 21 21 20 18 16 17 19 21 21 20 19 18 16 14 12 12 13 13 13 14 15 15 16 17 17 18 18 19 19 20 21 21 21 22 22 23 23 22 23 22 22 21 20 20 19 18
21 22 23 23 22 19 17 17 18 20 21 21 20 19 17 15 13 12 12 13 13 13 14 14 15 16 17 18 19 19 19 19 20 21 22 22 22 23 23 24 24 24 24 23 22 22 21 20 19
23 25 25 24 22 20 18 18 19 21 21 19 18 17 17 15 14 13 13 14 14 14 14 14 16 17 18 18 18 18 19 20 21 22 22 22 23 23 24 25 26 25 24 24 24 23 23 22 20
25 26 25 24 21 20 19 19 20 21 20 20 19 18 17 16 16 15 14 14 14 14 15 15 16 18 19 20 19 19 18 19 20 22 22 23 23 23 25 26 25 25 24 24 25 24 23 23 21
26 26 25 24 21 20 20 21 22 22 20 19 19 18 17 15 15 15 15 13 14 15 16 16 17 18 19 20 20 21 20 20 21 21 22 24 24 24 24 24 23 24 24 24 24 24 24 23 22
25 25 24 22 21 20 21 22 22 21 21 19 17 16 16 17 16 15 14 15 16 16 17 18 19 19 19 20 19 20 22 21 21 22 22 22 22 24 24 23 24 24 25 24 24 24 23 22 22
24 23 23 22 20 19 19 19 20 19 19 19 18 16 15 16 16 15 15 16 16 18 18 19 20 20 20 20 20 20 21 21 20 21 21 21 23 23 24 24 24 24 24 25 24 24 23 23 22
22 21 20 19 18 18 18 18 18 17 17 17 17 16 16 15 15 16 16 16 17 18 19 19 20 20 20 20 20 20 20 20 20 21 22 22 23 23 23 23 23 24 25 25 24 24 23 23 23
20 19 18 16 15 16 16 16 17 17 17 17 16 16 17 17 15 15 15 17 18 19 19 18 19 20 20 21 20 20 20 20 20 21 22 23 23 23 23 23 25 25 24 24 24 24 23 23 23
18 18 16 14 14 14 15 15 16 16 16 16 15 16 17 17 17 17 18 20 20 19 18 18 19 20 21 21 22 21 21 21 21 21 22 23 24 24 24 24 24 23 23 23 24 23 23 23 24
17 17 15 13 13 14 14 14 15 16 17 15 15 17 17 17 18 19 20 21 20 18 18 19 19 20 22 22 23 23 23 22 22 22 22 23 23 23 23 23 23 23 24 24 24 24 24 24 24
18 16 14 12 13 13 13 14 16 17 17 18 18 18 18 18 19 21 21 21 20 19 19 20 20 21 22 22 23 23 23 23 24 23 23 23 23 23 23 23 24 23 23 23 23 24 24 24 24
18 16 15 13 13 12 14 16 16 17 19 19 19 19 18 19 20 21 21 21 21 21 20 21 22 22 22 22 22 22 23 23 24 24 24 24 24 24 24 23 23 22 22 22 23 24 24 25 25
16 16 16 16 16 16 16 17 17 18 20 20 20 19 20 19 20 21 22 21 20 21 21 22 22 23 23 23 23 23 23 24 24 24 24 24 24 24 24 24 23 23 22 23 23 23 24 25 25
15 16 17 18 19 19 19 20 20 21 22 22 21 20 21 20 21 21 20 19 19 20 21 21 22 23 23 23 23 24 24 24 24 24 24 24 24 24 23 23 23 22 22 22 22 23 24 24 24
15 17 19 19 19 20 19 21 21 22 22 23 23 22 21 20 20 20 19 18 19 20 20 21 22 22 23 24 24 24 24 24 23 23 24 24 24 24 24 23 23 22 21 21 22 23 24 24 24
15 16 19 21 22 22 20 22 23 23 22 22 23 23 22 20 20 20 19 19 20 20 21 21 22 23 23 24 24 24 24 23 23 23 24 24 23 23 24 24 22 21 20 20 21 22 24 24 24
15 17 18 19 21 22 23 25 24 24 24 23 22 20 20 20 19 20 19 20 20 21 21 22 23 24 24 24 24 23 23 24 23 23 23 23 22 22 22 23 22 21 21 22 22 23 23 24 24
15 16 18 20 19 20 22 25 25 23 22 21 20 21 21 19 18 18 20 20 20 21 21 22 23 23 24 24 24 24 24 24 24 23 24 23 23 23 22 22 22 22 22 23 23 23 24 24 24
16 16 18 20 20 20 21 22 22 20 20 21 21 21 21 19 18 18 19 19 20 21 22 23 24 24 25 25 25 24 24 24 24 24 24 24 23 22 22 21 22 22 22 22 23 23 23 23 23
17 17 18 19 20 20 21 21 20 20 21 21 22 22 21 19 19 19 19 20 21 22 22 23 24 24 25 25 25 24 24 25 25 25 24 24 23 22 22 21 21 21 21 21 21 21 21 22 22
17 18 19 20 20 21 23 23 21 21 21 22 21 21 21 21 21 21 20 21 22 23 23 24 24 25 25 25 25 24 24 24 24 24 23 23 22 22 21 20 20 20 20 19 19 20 20 20 21